Time,TemperatureF,DewpointF,PressureIn,WindDirection,WindDirectionDegrees,WindSpeedMPH,WindSpeedGustMPH,Humidity,HourlyPrecipIn,Conditions,Clouds,dailyrainin,SoftwareType,DateUTC
2013-11-12 00:00:00,37.8,26.3,30.09,SW,229,0.0,0.0,63,0.00,,SCT,0.00,WeatherDisplay:10.37,2013-11-12 05:00:00,
2013-11-12 00:01:00,37.8,26.3,30.09,SW,229,0.0,0.0,63,0.00,,SCT,0.00,WeatherDisplay:10.37,2013-11-12 05:01:00,
2013-11-12 00:02:00,37.8,26.3,30.09,SW,229,0.0,0.0,63,0.00,,SCT,0.00,WeatherDisplay:10.37,2013-11-12 05:02:00,
2013-11-12 00:03:00,37.8,26.3,30.09,SW,229,0.0,0.0,63,0.00,,SCT,0.00,WeatherDisplay:10.37,2013-11-12 05:03:00,
2013-11-12 00:04:00,37.8,26.3,30.09,SW,229,0.0,0.0,63,0.00,,SCT,0.00,WeatherDisplay:10.37,2013-11-12 05:04:00,
2013-11-12 00:07:00,37.9,26.4,30.09,SW,229,0.0,0.0,63,0.00,,SCT,0.00,WeatherDisplay:10.37,2013-11-12 05:07:00,
2013-11-12 00:08:00,37.9,26.4,30.09,SW,229,0.0,0.0,63,0.00,,SCT,0.00,WeatherDisplay:10.37,2013-11-12 05:08:00,
2013-11-12 00:09:00,37.9,26.0,30.09,SW,229,0.0,0.0,62,0.00,,SCT,0.00,WeatherDisplay:10.37,2013-11-12 05:09:00,
2013-11-12 00:10:00,37.9,26.0,30.09,SW,229,0.0,0.0,62,0.00,,SCT,0.00,WeatherDisplay:10.37,2013-11-12 05:10:00,
2013-11-12 00:12:00,37.9,26.0,30.09,SW,229,0.0,0.0,62,0.00,,SCT,0.00,WeatherDisplay:10.37,2013-11-12 05:12:00,
2013-11-12 00:13:00,37.9,26.0,30.09,SW,229,0.0,0.0,62,0.00,,SCT,0.00,WeatherDisplay:10.37,2013-11-12 05:13:00,
2013-11-12 00:14:00,37.9,26.0,30.09,SW,229,0.0,0.0,62,0.00,,SCT,0.00,WeatherDisplay:10.37,2013-11-12 05:14:00,
2013-11-12 00:15:00,38.0,26.1,30.09,SW,229,0.0,0.0,62,0.00,,SCT,0.00,WeatherDisplay:10.37,2013-11-12 05:15:00,
2013-11-12 00:16:00,38.0,26.1,30.09,SW,229,0.0,0.0,62,0.00,,SCT,0.00,WeatherDisplay:10.37,2013-11-12 05:16:00,
2013-11-12 00:21:00,38.0,26.1,30.09,SW,229,0.0,0.0,62,0.00,,SCT,0.00,WeatherDisplay:10.37,2013-11-12 05:21:00,
2013-11-12 00:22:00,38.2,26.3,30.09,SW,229,0.0,0.0,62,0.00,,SCT,0.00,WeatherDisplay:10.37,2013-11-12 05:22:00,
2013-11-12 00:23:00,38.2,26.7,30.09,SW,229,0.0,0.0,63,0.00,,SCT,0.00,WeatherDisplay:10.37,2013-11-12 05:23:00,
2013-11-12 00:25:00,38.2,26.7,30.09,SW,229,0.0,0.0,63,0.00,,SCT,0.00,WeatherDisplay:10.37,2013-11-12 05:25:00,
2013-11-12 00:26:00,38.2,26.7,30.09,SW,229,0.0,0.0,63,0.00,,SCT,0.00,WeatherDisplay:10.37,2013-11-12 05:26:00,
2013-11-12 00:28:00,38.3,26.8,30.09,SW,229,0.0,0.0,63,0.00,,SCT,0.00,WeatherDisplay:10.37,2013-11-12 05:28:00,
2013-11-12 00:30:00,38.3,26.8,30.09,SW,229,0.0,0.0,63,0.00,,SCT,0.00,WeatherDisplay:10.37,2013-11-12 05:30:00,
2013-11-12 00:31:00,38.3,26.8,30.09,SW,229,0.0,0.0,63,0.00,,SCT,0.00,WeatherDisplay:10.37,2013-11-12 05:31:00,
2013-11-12 00:33:00,38.5,27.0,30.08,SW,229,0.0,0.0,63,0.00,,SCT,0.00,WeatherDisplay:10.37,2013-11-12 05:33:00,
2013-11-12 00:36:00,38.6,27.5,30.08,SW,229,0.0,0.0,64,0.00,,SCT,0.00,WeatherDisplay:10.37,2013-11-12 05:36:00,
2013-11-12 00:37:00,38.6,27.5,30.08,SW,229,0.0,0.0,64,0.00,,SCT,0.00,WeatherDisplay:10.37,2013-11-12 05:37:00,
2013-11-12 00:38:00,38.6,27.5,30.08,SW,229,0.0,0.0,64,0.00,,SCT,0.00,WeatherDisplay:10.37,2013-11-12 05:38:00,
2013-11-12 00:42:00,38.8,27.3,30.08,SW,229,0.0,0.0,63,0.00,,SCT,0.00,WeatherDisplay:10.37,2013-11-12 05:42:00,
2013-11-12 00:43:00,38.8,27.3,30.08,SW,229,0.0,0.0,63,0.00,,SCT,0.00,WeatherDisplay:10.37,2013-11-12 05:43:00,
2013-11-12 00:45:00,38.9,27.4,30.08,SW,229,0.0,0.0,63,0.00,,SCT,0.00,WeatherDisplay:10.37,2013-11-12 05:45:00,
2013-11-12 00:46:00,38.9,27.4,30.08,SW,229,0.0,0.0,63,0.00,,SCT,0.00,WeatherDisplay:10.37,2013-11-12 05:46:00,
2013-11-12 00:47:00,38.9,27.4,30.08,SW,229,0.0,0.0,63,0.00,,SCT,0.00,WeatherDisplay:10.37,2013-11-12 05:47:00,
2013-11-12 00:50:00,38.9,27.8,30.08,SW,229,0.0,0.0,64,0.00,,SCT,0.00,WeatherDisplay:10.37,2013-11-12 05:50:00,
2013-11-12 00:51:00,38.9,27.8,30.08,SW,229,0.0,0.0,64,0.00,,SCT,0.00,WeatherDisplay:10.37,2013-11-12 05:51:00,
2013-11-12 00:52:00,39.1,27.9,30.08,SW,229,0.0,0.0,64,0.00,,SCT,0.00,WeatherDisplay:10.37,2013-11-12 05:52:00,
2013-11-12 00:55:00,39.1,27.9,30.08,SW,229,0.0,0.0,64,0.00,,SCT,0.00,WeatherDisplay:10.37,2013-11-12 05:55:00,
2013-11-12 00:56:00,39.1,27.9,30.08,SW,229,0.0,0.0,64,0.00,,SCT,0.00,WeatherDisplay:10.37,2013-11-12 05:56:00,
2013-11-12 00:58:00,39.1,27.9,30.08,SW,229,0.0,0.0,64,0.00,,SCT,0.00,WeatherDisplay:10.37,2013-11-12 05:58:00,
2013-11-12 00:59:00,39.1,27.9,30.08,SW,229,0.0,0.0,64,0.00,,SCT,0.00,WeatherDisplay:10.37,2013-11-12 05:59:00,
2013-11-12 01:01:00,39.1,27.9,30.08,SW,229,0.0,0.0,64,0.00,,SCT,0.00,WeatherDisplay:10.37,2013-11-12 06:01:00,
2013-11-12 01:05:00,38.9,28.1,30.07,SW,229,0.0,0.0,65,0.00,,SCT,0.00,WeatherDisplay:10.37,2013-11-12 06:05:00,
2013-11-12 01:06:00,38.9,27.8,30.07,SW,229,0.0,0.0,64,0.00,,SCT,0.00,WeatherDisplay:10.37,2013-11-12 06:06:00,
2013-11-12 01:10:00,38.9,27.8,30.07,SW,229,0.0,0.0,64,0.00,,SCT,0.00,WeatherDisplay:10.37,2013-11-12 06:10:00,
2013-11-12 01:11:00,38.9,27.8,30.07,SW,229,0.0,0.0,64,0.00,,SCT,0.00,WeatherDisplay:10.37,2013-11-12 06:11:00,
2013-11-12 01:13:00,38.8,27.7,30.07,SW,229,0.0,0.0,64,0.00,,SCT,0.00,WeatherDisplay:10.37,2013-11-12 06:13:00,
2013-11-12 01:15:00,38.8,27.7,30.07,SW,229,0.0,0.0,64,0.00,,SCT,0.00,WeatherDisplay:10.37,2013-11-12 06:15:00,
2013-11-12 01:16:00,38.8,27.7,30.07,SW,229,0.0,0.0,64,0.00,,SCT,0.00,WeatherDisplay:10.37,2013-11-12 06:16:00,
2013-11-12 01:18:00,38.6,27.5,30.06,SW,229,0.0,0.0,64,0.00,,SCT,0.00,WeatherDisplay:10.37,2013-11-12 06:18:00,
2013-11-12 01:21:00,38.6,27.5,30.06,SW,229,0.0,0.0,64,0.00,,SCT,0.00,WeatherDisplay:10.37,2013-11-12 06:21:00,
2013-11-12 01:23:00,38.6,27.5,30.06,SW,229,0.0,0.0,64,0.00,,SCT,0.00,WeatherDisplay:10.37,2013-11-12 06:23:00,
2013-11-12 01:24:00,38.6,27.8,30.06,SW,229,0.0,0.0,65,0.00,,SCT,0.00,WeatherDisplay:10.37,2013-11-12 06:24:00,
2013-11-12 01:26:00,38.5,27.7,30.06,SW,229,0.0,0.0,65,0.00,,SCT,0.00,WeatherDisplay:10.37,2013-11-12 06:26:00,
2013-11-12 01:28:00,38.5,27.7,30.06,SW,229,0.0,0.0,65,0.00,,SCT,0.00,WeatherDisplay:10.37,2013-11-12 06:28:00,
2013-11-12 01:29:00,38.5,27.7,30.06,SW,229,0.0,0.0,65,0.00,,SCT,0.00,WeatherDisplay:10.37,2013-11-12 06:29:00,
2013-11-12 01:30:00,38.5,27.7,30.05,SW,229,0.0,0.0,65,0.00,,SCT,0.00,WeatherDisplay:10.37,2013-11-12 06:30:00,
2013-11-12 01:31:00,38.5,27.7,30.05,SW,229,0.0,0.0,65,0.00,,SCT,0.00,WeatherDisplay:10.37,2013-11-12 06:31:00,
2013-11-12 01:34:00,38.5,27.7,30.05,SW,229,0.0,0.0,65,0.00,,SCT,0.00,WeatherDisplay:10.37,2013-11-12 06:34:00,
2013-11-12 01:36:00,38.5,27.7,30.05,SW,229,0.0,0.0,65,0.00,,SCT,0.00,WeatherDisplay:10.37,2013-11-12 06:36:00,
2013-11-12 01:37:00,38.5,27.7,30.05,SW,229,0.0,0.0,65,0.00,,SCT,0.00,WeatherDisplay:10.37,2013-11-12 06:37:00,
2013-11-12 01:39:00,38.5,27.7,30.05,SW,229,0.0,0.0,65,0.00,,SCT,0.00,WeatherDisplay:10.37,2013-11-12 06:39:00,
2013-11-12 01:43:00,38.6,27.8,30.05,SW,229,0.0,0.0,65,0.00,,SCT,0.00,WeatherDisplay:10.37,2013-11-12 06:43:00,
2013-11-12 01:44:00,38.6,28.2,30.05,SW,229,0.0,0.0,66,0.00,,SCT,0.00,WeatherDisplay:10.37,2013-11-12 06:44:00,
2013-11-12 01:45:00,38.6,28.2,30.05,SW,229,0.0,0.0,66,0.00,,SCT,0.00,WeatherDisplay:10.37,2013-11-12 06:45:00,
2013-11-12 01:48:00,38.8,28.0,30.05,SW,229,0.0,0.0,65,0.00,,SCT,0.00,WeatherDisplay:10.37,2013-11-12 06:48:00,
2013-11-12 01:49:00,38.8,28.0,30.05,SW,229,1.2,1.2,65,0.00,,SCT,0.00,WeatherDisplay:10.37,2013-11-12 06:49:00,
2013-11-12 01:50:00,38.8,28.0,30.05,SW,229,1.2,0.0,65,0.00,,SCT,0.00,WeatherDisplay:10.37,2013-11-12 06:50:00,
2013-11-12 01:53:00,38.8,28.0,30.05,SW,229,0.0,0.0,65,0.00,,SCT,0.00,WeatherDisplay:10.37,2013-11-12 06:53:00,
2013-11-12 01:54:00,38.8,28.0,30.05,SW,229,0.0,0.0,65,0.00,,SCT,0.00,WeatherDisplay:10.37,2013-11-12 06:54:00,
2013-11-12 01:55:00,38.8,28.0,30.05,SW,229,0.0,0.0,65,0.00,,SCT,0.00,WeatherDisplay:10.37,2013-11-12 06:55:00,
2013-11-12 01:59:00,38.8,28.4,30.05,SW,229,0.0,0.0,66,0.00,,SCT,0.00,WeatherDisplay:10.37,2013-11-12 06:59:00,
2013-11-12 02:00:00,38.8,28.4,30.05,SW,229,0.0,0.0,66,0.00,,SCT,0.00,WeatherDisplay:10.37,2013-11-12 07:00:00,
2013-11-12 02:01:00,38.6,28.2,30.05,SW,229,0.0,0.0,66,0.00,,SCT,0.00,WeatherDisplay:10.37,2013-11-12 07:01:00,
2013-11-12 02:03:00,38.6,28.2,30.05,SW,229,0.0,0.0,66,0.00,,SCT,0.00,WeatherDisplay:10.37,2013-11-12 07:03:00,
2013-11-12 02:05:00,38.6,28.2,30.05,SW,229,0.0,0.0,66,0.00,,SCT,0.00,WeatherDisplay:10.37,2013-11-12 07:05:00,
2013-11-12 02:07:00,38.6,28.2,30.05,SW,229,0.0,0.0,66,0.00,,SCT,0.00,WeatherDisplay:10.37,2013-11-12 07:07:00,
2013-11-12 02:08:00,38.6,28.2,30.05,SW,229,0.0,0.0,66,0.00,,SCT,0.00,WeatherDisplay:10.37,2013-11-12 07:08:00,
2013-11-12 02:09:00,38.6,28.2,30.05,SW,229,0.0,0.0,66,0.00,,SCT,0.00,WeatherDisplay:10.37,2013-11-12 07:09:00,
2013-11-12 02:10:00,38.8,28.4,30.05,SW,229,0.0,0.0,66,0.00,,SCT,0.00,WeatherDisplay:10.37,2013-11-12 07:10:00,
2013-11-12 02:11:00,38.6,28.2,30.05,SW,229,0.0,0.0,66,0.00,,SCT,0.00,WeatherDisplay:10.37,2013-11-12 07:11:00,
2013-11-12 02:12:00,38.8,28.4,30.05,SW,229,0.0,0.0,66,0.00,,SCT,0.00,WeatherDisplay:10.37,2013-11-12 07:12:00,
2013-11-12 02:17:00,38.8,28.8,30.05,SW,229,0.0,0.0,67,0.00,,SCT,0.00,WeatherDisplay:10.37,2013-11-12 07:17:00,
2013-11-12 02:18:00,38.8,28.8,30.05,SW,229,0.0,0.0,67,0.00,,SCT,0.00,WeatherDisplay:10.37,2013-11-12 07:18:00,
2013-11-12 02:20:00,38.8,28.4,30.05,SW,229,0.0,0.0,66,0.00,,SCT,0.00,WeatherDisplay:10.37,2013-11-12 07:20:00,
2013-11-12 02:22:00,38.8,28.8,30.05,SW,229,0.0,0.0,67,0.00,,SCT,0.00,WeatherDisplay:10.37,2013-11-12 07:22:00,
2013-11-12 02:23:00,38.8,28.8,30.05,SW,229,0.0,0.0,67,0.00,,SCT,0.00,WeatherDisplay:10.37,2013-11-12 07:23:00,
2013-11-12 02:24:00,38.8,28.8,30.05,SW,229,0.0,0.0,67,0.00,,SCT,0.00,WeatherDisplay:10.37,2013-11-12 07:24:00,
2013-11-12 02:27:00,38.8,28.8,30.05,SW,229,0.0,0.0,67,0.00,,SCT,0.00,WeatherDisplay:10.37,2013-11-12 07:27:00,
2013-11-12 02:28:00,38.8,28.8,30.05,SW,229,0.0,0.0,67,0.00,,SCT,0.00,WeatherDisplay:10.37,2013-11-12 07:28:00,
2013-11-12 02:30:00,38.8,28.4,30.05,SW,229,0.0,0.0,66,0.00,,SCT,0.00,WeatherDisplay:10.37,2013-11-12 07:30:00,
2013-11-12 02:31:00,38.8,28.8,30.05,SW,229,0.0,0.0,67,0.00,,SCT,0.00,WeatherDisplay:10.37,2013-11-12 07:31:00,
2013-11-12 02:33:00,38.9,28.9,30.05,SW,229,0.0,0.0,67,0.00,,SCT,0.00,WeatherDisplay:10.37,2013-11-12 07:33:00,
2013-11-12 02:34:00,38.9,28.9,30.05,SW,229,0.0,0.0,67,0.00,,SCT,0.00,WeatherDisplay:10.37,2013-11-12 07:34:00,
2013-11-12 02:36:00,38.9,28.9,30.05,SW,229,0.0,0.0,67,0.00,,SCT,0.00,WeatherDisplay:10.37,2013-11-12 07:36:00,
2013-11-12 02:37:00,38.9,28.9,30.05,SW,229,0.0,0.0,67,0.00,,SCT,0.00,WeatherDisplay:10.37,2013-11-12 07:37:00,
2013-11-12 02:39:00,38.9,28.9,30.05,SW,229,0.0,0.0,67,0.00,,SCT,0.00,WeatherDisplay:10.37,2013-11-12 07:39:00,
2013-11-12 02:40:00,38.9,28.9,30.05,SW,229,0.0,0.0,67,0.00,,SCT,0.00,WeatherDisplay:10.37,2013-11-12 07:40:00,
2013-11-12 02:43:00,38.9,28.9,30.05,SW,229,0.0,0.0,67,0.00,,SCT,0.00,WeatherDisplay:10.37,2013-11-12 07:43:00,
2013-11-12 02:44:00,39.1,29.1,30.05,SW,229,0.0,0.0,67,0.00,,SCT,0.00,WeatherDisplay:10.37,2013-11-12 07:44:00,
2013-11-12 02:46:00,39.1,29.1,30.05,SW,229,0.0,0.0,67,0.00,,SCT,0.00,WeatherDisplay:10.37,2013-11-12 07:46:00,
2013-11-12 02:48:00,39.1,29.1,30.05,SW,229,0.0,0.0,67,0.00,,SCT,0.00,WeatherDisplay:10.37,2013-11-12 07:48:00,
2013-11-12 02:50:00,39.1,29.1,30.05,SW,229,0.0,0.0,67,0.00,,SCT,0.00,WeatherDisplay:10.37,2013-11-12 07:50:00,
2013-11-12 02:51:00,39.1,29.1,30.05,SW,229,0.0,0.0,67,0.00,,SCT,0.00,WeatherDisplay:10.37,2013-11-12 07:51:00,
2013-11-12 02:52:00,39.1,29.1,30.05,SW,229,0.0,0.0,67,0.00,,SCT,0.00,WeatherDisplay:10.37,2013-11-12 07:52:00,
2013-11-12 02:53:00,39.1,29.1,30.05,SW,229,0.0,0.0,67,0.00,,SCT,0.00,WeatherDisplay:10.37,2013-11-12 07:53:00,
2013-11-12 02:56:00,39.1,29.1,30.05,SW,229,0.0,0.0,67,0.00,,SCT,0.00,WeatherDisplay:10.37,2013-11-12 07:56:00,
2013-11-12 02:57:00,39.1,29.1,30.05,SW,229,0.0,0.0,67,0.00,,SCT,0.00,WeatherDisplay:10.37,2013-11-12 07:57:00,
2013-11-12 02:58:00,39.1,29.1,30.05,SW,229,0.0,0.0,67,0.00,,SCT,0.00,WeatherDisplay:10.37,2013-11-12 07:58:00,
2013-11-12 03:01:00,39.1,29.1,30.05,SW,229,0.0,0.0,67,0.00,,SCT,0.00,WeatherDisplay:10.37,2013-11-12 08:01:00,
2013-11-12 03:03:00,39.1,29.1,30.04,SW,229,0.0,0.0,67,0.00,,SCT,0.00,WeatherDisplay:10.37,2013-11-12 08:03:00,
2013-11-12 03:04:00,39.1,29.1,30.05,SW,229,0.0,0.0,67,0.00,,SCT,0.00,WeatherDisplay:10.37,2013-11-12 08:04:00,
2013-11-12 03:05:00,39.1,29.4,30.05,SW,229,0.0,0.0,68,0.00,,SCT,0.00,WeatherDisplay:10.37,2013-11-12 08:05:00,
2013-11-12 03:09:00,39.1,29.4,30.04,SW,229,0.0,0.0,68,0.00,,SCT,0.00,WeatherDisplay:10.37,2013-11-12 08:09:00,
2013-11-12 03:11:00,39.2,29.5,30.04,SW,229,0.0,0.0,68,0.00,,SCT,0.00,WeatherDisplay:10.37,2013-11-12 08:11:00,
2013-11-12 03:12:00,39.2,29.5,30.05,SW,229,0.0,0.0,68,0.00,,SCT,0.00,WeatherDisplay:10.37,2013-11-12 08:12:00,
2013-11-12 03:13:00,39.2,29.5,30.04,SW,229,0.0,0.0,68,0.00,,SCT,0.00,WeatherDisplay:10.37,2013-11-12 08:13:00,
2013-11-12 03:14:00,39.2,29.5,30.04,SW,229,0.0,0.0,68,0.00,,SCT,0.00,WeatherDisplay:10.37,2013-11-12 08:14:00,
2013-11-12 03:16:00,39.2,29.9,30.04,SW,229,0.0,0.0,69,0.00,,SCT,0.00,WeatherDisplay:10.37,2013-11-12 08:16:00,
2013-11-12 03:17:00,39.2,29.9,30.04,SW,229,0.0,0.0,69,0.00,,SCT,0.00,WeatherDisplay:10.37,2013-11-12 08:17:00,
2013-11-12 03:18:00,39.2,29.9,30.04,SW,229,0.0,0.0,69,0.00,,SCT,0.00,WeatherDisplay:10.37,2013-11-12 08:18:00,
2013-11-12 03:21:00,39.2,29.9,30.04,SW,229,0.0,0.0,69,0.00,,SCT,0.00,WeatherDisplay:10.37,2013-11-12 08:21:00,
2013-11-12 03:22:00,39.2,29.9,30.04,SW,229,0.0,0.0,69,0.00,,SCT,0.00,WeatherDisplay:10.37,2013-11-12 08:22:00,
2013-11-12 03:23:00,39.2,29.9,30.04,SW,229,0.0,0.0,69,0.00,,SCT,0.00,WeatherDisplay:10.37,2013-11-12 08:23:00,
2013-11-12 03:27:00,39.2,29.5,30.04,SW,229,0.0,0.0,68,0.00,,SCT,0.00,WeatherDisplay:10.37,2013-11-12 08:27:00,
2013-11-12 03:28:00,39.2,29.9,30.04,SW,229,0.0,0.0,69,0.00,,SCT,0.00,WeatherDisplay:10.37,2013-11-12 08:28:00,
2013-11-12 03:31:00,39.1,29.8,30.04,SW,229,0.0,0.0,69,0.00,,SCT,0.00,WeatherDisplay:10.37,2013-11-12 08:31:00,
2013-11-12 03:32:00,39.1,29.8,30.04,SW,229,0.0,0.0,69,0.00,,SCT,0.00,WeatherDisplay:10.37,2013-11-12 08:32:00,
2013-11-12 03:34:00,39.1,29.8,30.04,SW,229,0.0,0.0,69,0.00,,SCT,0.00,WeatherDisplay:10.37,2013-11-12 08:34:00,
2013-11-12 03:37:00,39.1,29.8,30.04,SW,229,0.0,0.0,69,0.00,,SCT,0.00,WeatherDisplay:10.37,2013-11-12 08:37:00,
2013-11-12 03:38:00,39.1,29.8,30.04,SW,229,0.0,0.0,69,0.00,,SCT,0.00,WeatherDisplay:10.37,2013-11-12 08:38:00,
2013-11-12 03:39:00,39.1,29.8,30.04,SW,229,0.0,0.0,69,0.00,,SCT,0.00,WeatherDisplay:10.37,2013-11-12 08:39:00,
2013-11-12 03:43:00,39.1,30.1,30.03,SW,229,0.0,0.0,70,0.00,,SCT,0.00,WeatherDisplay:10.37,2013-11-12 08:43:00,
2013-11-12 03:44:00,39.2,30.2,30.03,SW,229,0.0,0.0,70,0.00,,SCT,0.00,WeatherDisplay:10.37,2013-11-12 08:44:00,
2013-11-12 03:46:00,39.2,30.2,30.03,SW,229,0.0,0.0,70,0.00,,SCT,0.00,WeatherDisplay:10.37,2013-11-12 08:46:00,
2013-11-12 03:50:00,39.2,30.2,30.03,SW,229,0.0,0.0,70,0.00,,SCT,0.00,WeatherDisplay:10.37,2013-11-12 08:50:00,
2013-11-12 03:52:00,39.3,30.3,30.03,SW,229,0.0,0.0,70,0.00,,SCT,0.00,WeatherDisplay:10.37,2013-11-12 08:52:00,
2013-11-12 03:53:00,39.3,30.3,30.03,SW,229,0.0,0.0,70,0.00,,SCT,0.00,WeatherDisplay:10.37,2013-11-12 08:53:00,
2013-11-12 03:54:00,39.3,30.3,30.03,SW,229,0.0,0.0,70,0.00,,SCT,0.00,WeatherDisplay:10.37,2013-11-12 08:54:00,
2013-11-12 03:57:00,39.3,30.3,30.03,SW,229,0.0,0.0,70,0.00,,SCT,0.00,WeatherDisplay:10.37,2013-11-12 08:57:00,
2013-11-12 03:58:00,39.3,30.3,30.03,SW,229,0.0,0.0,70,0.00,,SCT,0.00,WeatherDisplay:10.37,2013-11-12 08:58:00,
2013-11-12 03:59:00,39.3,30.3,30.03,SW,229,0.0,0.0,70,0.00,,SCT,0.00,WeatherDisplay:10.37,2013-11-12 08:59:00,
2013-11-12 04:00:00,39.5,30.5,30.03,SW,229,0.0,0.0,70,0.00,,SCT,0.00,WeatherDisplay:10.37,2013-11-12 09:00:00,
2013-11-12 04:03:00,39.5,30.5,30.03,SW,229,0.0,0.0,70,0.00,,SCT,0.00,WeatherDisplay:10.37,2013-11-12 09:03:00,
2013-11-12 04:04:00,39.5,30.9,30.03,SW,229,0.0,0.0,71,0.00,,SCT,0.00,WeatherDisplay:10.37,2013-11-12 09:04:00,
2013-11-12 04:05:00,39.5,30.5,30.03,SW,229,0.0,0.0,70,0.00,,SCT,0.00,WeatherDisplay:10.37,2013-11-12 09:05:00,
2013-11-12 04:06:00,39.6,30.6,30.03,SW,229,0.0,0.0,70,0.00,,SCT,0.00,WeatherDisplay:10.37,2013-11-12 09:06:00,
2013-11-12 04:08:00,39.6,30.6,30.03,SW,229,0.0,0.0,70,0.00,,SCT,0.00,WeatherDisplay:10.37,2013-11-12 09:08:00,
2013-11-12 04:09:00,39.6,30.6,30.03,SW,229,0.0,0.0,70,0.00,,SCT,0.00,WeatherDisplay:10.37,2013-11-12 09:09:00,
2013-11-12 04:10:00,39.6,30.6,30.03,SW,229,0.0,0.0,70,0.00,,SCT,0.00,WeatherDisplay:10.37,2013-11-12 09:10:00,
2013-11-12 04:11:00,39.6,30.6,30.03,SW,229,0.0,0.0,70,0.00,,SCT,0.00,WeatherDisplay:10.37,2013-11-12 09:11:00,
2013-11-12 04:12:00,39.6,30.6,30.03,SW,229,0.0,0.0,70,0.00,,SCT,0.00,WeatherDisplay:10.37,2013-11-12 09:12:00,
2013-11-12 04:15:00,39.8,30.8,30.03,SW,229,0.0,0.0,70,0.00,,SCT,0.00,WeatherDisplay:10.37,2013-11-12 09:15:00,
2013-11-12 04:16:00,39.8,30.8,30.03,SW,229,0.0,0.0,70,0.00,,SCT,0.00,WeatherDisplay:10.37,2013-11-12 09:16:00,
2013-11-12 04:19:00,39.8,30.8,30.03,SW,229,0.0,0.0,70,0.00,,SCT,0.00,WeatherDisplay:10.37,2013-11-12 09:19:00,
2013-11-12 04:21:00,39.8,30.8,30.03,SW,229,0.0,0.0,70,0.00,,SCT,0.00,WeatherDisplay:10.37,2013-11-12 09:21:00,
2013-11-12 04:22:00,39.8,30.8,30.03,SW,229,0.0,0.0,70,0.00,,SCT,0.00,WeatherDisplay:10.37,2013-11-12 09:22:00,
2013-11-12 04:25:00,39.8,30.8,30.03,SW,229,0.0,0.0,70,0.00,,SCT,0.00,WeatherDisplay:10.37,2013-11-12 09:25:00,
2013-11-12 04:26:00,39.8,31.2,30.03,SW,229,0.0,0.0,71,0.00,,SCT,0.00,WeatherDisplay:10.37,2013-11-12 09:26:00,
2013-11-12 04:29:00,39.9,31.3,30.03,SW,229,0.0,0.0,71,0.00,,SCT,0.00,WeatherDisplay:10.37,2013-11-12 09:29:00,
2013-11-12 04:31:00,39.9,31.3,30.03,SW,229,0.0,0.0,71,0.00,,SCT,0.00,WeatherDisplay:10.37,2013-11-12 09:31:00,
2013-11-12 04:32:00,39.9,31.3,30.03,SW,229,0.0,0.0,71,0.00,,SCT,0.00,WeatherDisplay:10.37,2013-11-12 09:32:00,
2013-11-12 04:34:00,39.9,31.3,30.03,SW,229,0.0,0.0,71,0.00,,SCT,0.00,WeatherDisplay:10.37,2013-11-12 09:34:00,
2013-11-12 04:36:00,39.9,31.3,30.03,SW,229,0.0,0.0,71,0.00,,SCT,0.00,WeatherDisplay:10.37,2013-11-12 09:36:00,
2013-11-12 04:37:00,40.1,31.4,30.03,SW,229,0.0,0.0,71,0.00,,SCT,0.00,WeatherDisplay:10.37,2013-11-12 09:37:00,
2013-11-12 04:38:00,40.1,31.4,30.03,SW,229,0.0,0.0,71,0.00,,SCT,0.00,WeatherDisplay:10.37,2013-11-12 09:38:00,
2013-11-12 04:39:00,40.1,31.4,30.03,SW,229,0.0,0.0,71,0.00,,SCT,0.00,WeatherDisplay:10.37,2013-11-12 09:39:00,
2013-11-12 04:40:00,40.1,31.4,30.03,SW,229,0.0,0.0,71,0.00,,SCT,0.00,WeatherDisplay:10.37,2013-11-12 09:40:00,
2013-11-12 04:41:00,40.1,31.4,30.03,SW,229,0.0,0.0,71,0.00,,SCT,0.00,WeatherDisplay:10.37,2013-11-12 09:41:00,
2013-11-12 04:44:00,40.1,31.1,30.03,SW,229,0.0,0.0,70,0.00,,SCT,0.00,WeatherDisplay:10.37,2013-11-12 09:44:00,
2013-11-12 04:46:00,40.1,31.1,30.03,SW,229,0.0,0.0,70,0.00,,SCT,0.00,WeatherDisplay:10.37,2013-11-12 09:46:00,
2013-11-12 04:48:00,40.1,31.1,30.03,SW,229,0.0,0.0,70,0.00,,SCT,0.00,WeatherDisplay:10.37,2013-11-12 09:48:00,
2013-11-12 04:50:00,40.2,31.5,30.03,SW,229,0.0,0.0,71,0.00,,SCT,0.00,WeatherDisplay:10.37,2013-11-12 09:50:00,
2013-11-12 04:53:00,40.3,31.6,30.03,SW,229,0.0,0.0,71,0.00,,SCT,0.00,WeatherDisplay:10.37,2013-11-12 09:53:00,
2013-11-12 04:55:00,40.3,31.6,30.03,SW,229,0.0,0.0,71,0.00,,SCT,0.00,WeatherDisplay:10.37,2013-11-12 09:55:00,
2013-11-12 04:57:00,40.3,31.6,30.02,SW,229,0.0,0.0,71,0.00,,SCT,0.00,WeatherDisplay:10.37,2013-11-12 09:57:00,
2013-11-12 04:59:00,40.3,31.6,30.02,SW,229,0.0,0.0,71,0.00,,SCT,0.00,WeatherDisplay:10.37,2013-11-12 09:59:00,
2013-11-12 05:02:00,40.5,31.8,30.04,SW,229,0.0,0.0,71,0.00,,SCT,0.00,WeatherDisplay:10.37,2013-11-12 10:02:00,
2013-11-12 05:03:00,40.5,31.8,30.04,SW,229,0.0,0.0,71,0.00,,SCT,0.00,WeatherDisplay:10.37,2013-11-12 10:03:00,
2013-11-12 05:06:00,40.5,31.8,30.04,SW,229,0.0,0.0,71,0.00,,SCT,0.00,WeatherDisplay:10.37,2013-11-12 10:06:00,
2013-11-12 05:07:00,40.5,31.8,30.04,SW,229,0.0,0.0,71,0.00,,SCT,0.00,WeatherDisplay:10.37,2013-11-12 10:07:00,
2013-11-12 05:08:00,40.6,31.9,30.04,SW,229,0.0,0.0,71,0.00,,SCT,0.00,WeatherDisplay:10.37,2013-11-12 10:08:00,
2013-11-12 05:09:00,40.6,31.9,30.04,SW,229,0.0,0.0,71,0.00,,SCT,0.00,WeatherDisplay:10.37,2013-11-12 10:09:00,
2013-11-12 05:12:00,40.6,31.9,30.04,SW,229,0.0,0.0,71,0.00,,SCT,0.00,WeatherDisplay:10.37,2013-11-12 10:12:00,
2013-11-12 05:13:00,40.6,31.9,30.04,SW,229,0.0,0.0,71,0.00,,SCT,0.00,WeatherDisplay:10.37,2013-11-12 10:13:00,
2013-11-12 05:15:00,40.6,31.9,30.04,SW,229,0.0,0.0,71,0.00,,SCT,0.00,WeatherDisplay:10.37,2013-11-12 10:15:00,
2013-11-12 05:18:00,40.8,32.1,30.04,SW,229,0.0,0.0,71,0.00,,SCT,0.00,WeatherDisplay:10.37,2013-11-12 10:18:00,
2013-11-12 05:20:00,40.8,32.1,30.04,SW,229,0.0,0.0,71,0.00,,SCT,0.00,WeatherDisplay:10.37,2013-11-12 10:20:00,
2013-11-12 05:21:00,40.8,32.1,30.04,SW,229,0.0,0.0,71,0.00,,SCT,0.00,WeatherDisplay:10.37,2013-11-12 10:21:00,
2013-11-12 05:22:00,40.8,32.1,30.04,SW,229,0.0,0.0,71,0.00,,SCT,0.00,WeatherDisplay:10.37,2013-11-12 10:22:00,
2013-11-12 05:23:00,40.8,32.1,30.04,SW,229,0.0,0.0,71,0.00,,SCT,0.00,WeatherDisplay:10.37,2013-11-12 10:23:00,
2013-11-12 05:25:00,40.8,32.1,30.05,SW,229,0.0,0.0,71,0.00,,SCT,0.00,WeatherDisplay:10.37,2013-11-12 10:25:00,
2013-11-12 05:27:00,40.8,32.1,30.05,SW,229,0.0,0.0,71,0.00,,SCT,0.00,WeatherDisplay:10.37,2013-11-12 10:27:00,
2013-11-12 05:28:00,40.8,32.1,30.05,SW,229,0.0,0.0,71,0.00,,SCT,0.00,WeatherDisplay:10.37,2013-11-12 10:28:00,
2013-11-12 05:30:00,40.8,32.1,30.05,SW,229,0.0,0.0,71,0.00,,SCT,0.00,WeatherDisplay:10.37,2013-11-12 10:30:00,
2013-11-12 05:31:00,40.8,32.1,30.05,SW,229,0.0,0.0,71,0.00,,SCT,0.00,WeatherDisplay:10.37,2013-11-12 10:31:00,
2013-11-12 05:34:00,40.8,32.5,30.05,SW,229,0.0,0.0,72,0.00,,SCT,0.00,WeatherDisplay:10.37,2013-11-12 10:34:00,
2013-11-12 05:35:00,40.8,32.5,30.05,SW,229,0.0,0.0,72,0.00,,SCT,0.00,WeatherDisplay:10.37,2013-11-12 10:35:00,
2013-11-12 05:36:00,40.8,32.5,30.05,SW,229,0.0,0.0,72,0.00,,SCT,0.00,WeatherDisplay:10.37,2013-11-12 10:36:00,
2013-11-12 05:38:00,40.8,32.5,30.05,SW,229,0.0,0.0,72,0.00,,SCT,0.00,WeatherDisplay:10.37,2013-11-12 10:38:00,
2013-11-12 05:40:00,40.8,32.5,30.05,SW,229,0.0,0.0,72,0.00,,SCT,0.00,WeatherDisplay:10.37,2013-11-12 10:40:00,
2013-11-12 05:41:00,40.8,32.5,30.05,SW,229,0.0,0.0,72,0.00,,SCT,0.00,WeatherDisplay:10.37,2013-11-12 10:41:00,
2013-11-12 05:43:00,40.8,32.5,30.05,SW,229,0.0,0.0,72,0.00,,SCT,0.00,WeatherDisplay:10.37,2013-11-12 10:43:00,
2013-11-12 05:44:00,40.8,32.5,30.05,SW,229,0.0,0.0,72,0.00,,SCT,0.00,WeatherDisplay:10.37,2013-11-12 10:44:00,
2013-11-12 05:46:00,40.6,32.3,30.05,SW,229,0.0,0.0,72,0.00,,SCT,0.00,WeatherDisplay:10.37,2013-11-12 10:46:00,
2013-11-12 05:49:00,40.6,32.3,30.05,SW,229,0.0,0.0,72,0.00,,SCT,0.00,WeatherDisplay:10.37,2013-11-12 10:49:00,
2013-11-12 05:50:00,40.6,32.3,30.05,SW,229,0.0,0.0,72,0.00,,SCT,0.00,WeatherDisplay:10.37,2013-11-12 10:50:00,
2013-11-12 05:51:00,40.6,32.3,30.05,SW,229,0.0,0.0,72,0.00,,SCT,0.00,WeatherDisplay:10.37,2013-11-12 10:51:00,
2013-11-12 05:52:00,40.6,32.3,30.05,SW,229,0.0,0.0,72,0.00,,SCT,0.00,WeatherDisplay:10.37,2013-11-12 10:52:00,
2013-11-12 05:53:00,40.6,32.3,30.05,SW,229,0.0,0.0,72,0.00,,SCT,0.00,WeatherDisplay:10.37,2013-11-12 10:53:00,
2013-11-12 05:55:00,40.6,32.3,30.05,SW,229,0.0,0.0,72,0.00,,SCT,0.00,WeatherDisplay:10.37,2013-11-12 10:55:00,
2013-11-12 05:57:00,40.6,32.3,30.05,SW,229,0.0,0.0,72,0.00,,SCT,0.00,WeatherDisplay:10.37,2013-11-12 10:57:00,
2013-11-12 05:58:00,40.6,32.3,30.05,SW,229,0.0,0.0,72,0.00,,SCT,0.00,WeatherDisplay:10.37,2013-11-12 10:58:00,
2013-11-12 06:00:00,40.6,32.3,30.05,SW,229,0.0,0.0,72,0.00,,SCT,0.00,WeatherDisplay:10.37,2013-11-12 11:00:00,
2013-11-12 06:01:00,40.6,32.3,30.05,SW,229,0.0,0.0,72,0.00,,SCT,0.00,WeatherDisplay:10.37,2013-11-12 11:01:00,
2013-11-12 06:02:00,40.6,32.3,30.06,SW,229,0.0,0.0,72,0.00,,SCT,0.00,WeatherDisplay:10.37,2013-11-12 11:02:00,
2013-11-12 06:06:00,40.6,32.6,30.06,SW,229,0.0,0.0,73,0.00,,SCT,0.00,WeatherDisplay:10.37,2013-11-12 11:06:00,
2013-11-12 06:07:00,40.6,32.6,30.06,SW,229,0.0,0.0,73,0.00,,SCT,0.00,WeatherDisplay:10.37,2013-11-12 11:07:00,
2013-11-12 06:08:00,40.6,32.6,30.06,SW,229,0.0,0.0,73,0.00,,SCT,0.00,WeatherDisplay:10.37,2013-11-12 11:08:00,
2013-11-12 06:10:00,40.6,32.6,30.06,SW,229,0.0,0.0,73,0.00,,SCT,0.00,WeatherDisplay:10.37,2013-11-12 11:10:00,
2013-11-12 06:12:00,40.8,32.8,30.06,SW,229,0.0,0.0,73,0.00,,SCT,0.00,WeatherDisplay:10.37,2013-11-12 11:12:00,
2013-11-12 06:14:00,40.8,32.8,30.06,SW,229,0.0,0.0,73,0.00,,SCT,0.00,WeatherDisplay:10.37,2013-11-12 11:14:00,
2013-11-12 06:16:00,40.8,32.8,30.06,SW,229,0.0,0.0,73,0.00,,SCT,0.00,WeatherDisplay:10.37,2013-11-12 11:16:00,
2013-11-12 06:17:00,40.8,32.5,30.06,SW,229,0.0,0.0,72,0.00,,SCT,0.00,WeatherDisplay:10.37,2013-11-12 11:17:00,
2013-11-12 06:18:00,40.8,32.5,30.06,SW,229,0.0,0.0,72,0.00,,SCT,0.00,WeatherDisplay:10.37,2013-11-12 11:18:00,
2013-11-12 06:19:00,40.8,32.5,30.06,SW,229,0.0,0.0,72,0.00,,SCT,0.00,WeatherDisplay:10.37,2013-11-12 11:19:00,
2013-11-12 06:22:00,40.8,32.5,30.06,SW,229,0.0,0.0,72,0.00,,SCT,0.00,WeatherDisplay:10.37,2013-11-12 11:22:00,
2013-11-12 06:23:00,40.8,32.5,30.06,SW,229,0.0,0.0,72,0.00,,SCT,0.00,WeatherDisplay:10.37,2013-11-12 11:23:00,
2013-11-12 06:25:00,40.8,32.5,30.06,SW,229,0.0,0.0,72,0.00,,SCT,0.00,WeatherDisplay:10.37,2013-11-12 11:25:00,
2013-11-12 06:26:00,40.8,32.5,30.06,SW,229,0.0,0.0,72,0.00,,SCT,0.00,WeatherDisplay:10.37,2013-11-12 11:26:00,
2013-11-12 06:28:00,40.8,32.8,30.06,SW,229,0.0,0.0,73,0.00,,SCT,0.00,WeatherDisplay:10.37,2013-11-12 11:28:00,
2013-11-12 06:29:00,40.8,32.8,30.06,SW,229,0.0,0.0,73,0.00,,SCT,0.00,WeatherDisplay:10.37,2013-11-12 11:29:00,
2013-11-12 06:30:00,40.8,32.8,30.06,SW,229,0.0,0.0,73,0.00,,SCT,0.00,WeatherDisplay:10.37,2013-11-12 11:30:00,
2013-11-12 06:31:00,40.8,32.8,30.06,SW,229,0.0,0.0,73,0.00,,SCT,0.00,WeatherDisplay:10.37,2013-11-12 11:31:00,
2013-11-12 06:33:00,40.9,32.9,30.06,SW,229,0.0,0.0,73,0.00,,SCT,0.00,WeatherDisplay:10.37,2013-11-12 11:33:00,
2013-11-12 06:34:00,40.9,32.9,30.06,SW,229,0.0,0.0,73,0.00,,SCT,0.00,WeatherDisplay:10.37,2013-11-12 11:34:00,
2013-11-12 06:35:00,40.9,32.9,30.06,SW,229,0.0,0.0,73,0.00,,SCT,0.00,WeatherDisplay:10.37,2013-11-12 11:35:00,
2013-11-12 06:39:00,41.1,33.1,30.06,SW,229,0.0,0.0,73,0.00,,SCT,0.00,WeatherDisplay:10.37,2013-11-12 11:39:00,
2013-11-12 06:40:00,41.1,33.1,30.06,SW,229,0.0,0.0,73,0.00,,SCT,0.00,WeatherDisplay:10.37,2013-11-12 11:40:00,
2013-11-12 06:43:00,41.2,33.2,30.06,SW,229,0.0,0.0,73,0.00,,SCT,0.00,WeatherDisplay:10.37,2013-11-12 11:43:00,
2013-11-12 06:44:00,41.2,33.2,30.06,SW,229,0.0,0.0,73,0.00,,SCT,0.00,WeatherDisplay:10.37,2013-11-12 11:44:00,
2013-11-12 06:46:00,41.2,33.2,30.07,SW,229,0.0,0.0,73,0.00,,SCT,0.00,WeatherDisplay:10.37,2013-11-12 11:46:00,
2013-11-12 06:47:00,41.3,33.3,30.07,SW,229,0.0,0.0,73,0.00,,SCT,0.00,WeatherDisplay:10.37,2013-11-12 11:47:00,
2013-11-12 06:48:00,41.3,33.3,30.07,SW,229,0.0,0.0,73,0.00,,SCT,0.00,WeatherDisplay:10.37,2013-11-12 11:48:00,
2013-11-12 06:49:00,41.3,33.3,30.07,SW,229,0.0,0.0,73,0.00,,SCT,0.00,WeatherDisplay:10.37,2013-11-12 11:49:00,
2013-11-12 06:51:00,41.5,33.5,30.07,SW,229,2.3,2.3,73,0.00,,SCT,0.00,WeatherDisplay:10.37,2013-11-12 11:51:00,
2013-11-12 06:53:00,41.6,33.6,30.07,SW,229,1.2,0.0,73,0.00,,SCT,0.00,WeatherDisplay:10.37,2013-11-12 11:53:00,
2013-11-12 06:57:00,41.8,34.1,30.07,SW,229,0.0,0.0,74,0.00,,SCT,0.00,WeatherDisplay:10.37,2013-11-12 11:57:00,
2013-11-12 06:58:00,41.8,34.1,30.07,SW,229,0.0,0.0,74,0.00,,SCT,0.00,WeatherDisplay:10.37,2013-11-12 11:58:00,
2013-11-12 07:01:00,41.9,34.2,30.07,SW,229,0.0,0.0,74,0.00,,SCT,0.00,WeatherDisplay:10.37,2013-11-12 12:01:00,
2013-11-12 07:04:00,41.9,34.2,30.08,SW,229,2.3,2.3,74,0.00,CLR,SCT,0.00,WeatherDisplay:10.37,2013-11-12 12:04:00,
2013-11-12 07:06:00,41.9,34.2,30.08,SW,229,2.3,0.0,74,0.00,CLR,SCT,0.00,WeatherDisplay:10.37,2013-11-12 12:06:00,
2013-11-12 07:07:00,42.1,34.4,30.08,SW,229,0.0,0.0,74,0.00,CLR,SCT,0.00,WeatherDisplay:10.37,2013-11-12 12:07:00,
2013-11-12 07:08:00,42.1,34.7,30.08,SW,229,0.0,0.0,75,0.00,CLR,SCT,0.00,WeatherDisplay:10.37,2013-11-12 12:08:00,
2013-11-12 07:10:00,42.1,34.4,30.08,SW,229,0.0,0.0,74,0.00,CLR,SCT,0.00,WeatherDisplay:10.37,2013-11-12 12:10:00,
2013-11-12 07:13:00,42.2,34.8,30.09,SW,229,0.0,0.0,75,0.00,CLR,SCT,0.00,WeatherDisplay:10.37,2013-11-12 12:13:00,
2013-11-12 07:14:00,42.2,34.8,30.09,SW,229,0.0,0.0,75,0.00,CLR,SCT,0.00,WeatherDisplay:10.37,2013-11-12 12:14:00,
2013-11-12 07:15:00,42.2,34.5,30.09,SW,229,0.0,0.0,74,0.00,CLR,SCT,0.00,WeatherDisplay:10.37,2013-11-12 12:15:00,
2013-11-12 07:16:00,42.3,34.6,30.09,SW,229,0.0,0.0,74,0.00,CLR,SCT,0.00,WeatherDisplay:10.37,2013-11-12 12:16:00,
2013-11-12 07:17:00,42.3,34.6,30.09,SW,229,0.0,0.0,74,0.00,CLR,SCT,0.00,WeatherDisplay:10.37,2013-11-12 12:17:00,
2013-11-12 07:19:00,42.3,34.6,30.09,SW,229,2.3,2.3,74,0.00,CLR,SCT,0.00,WeatherDisplay:10.37,2013-11-12 12:19:00,
2013-11-12 07:21:00,42.5,34.8,30.09,SW,229,0.0,0.0,74,0.00,CLR,SCT,0.00,WeatherDisplay:10.37,2013-11-12 12:21:00,
2013-11-12 07:22:00,42.5,35.1,30.09,SW,229,2.3,2.3,75,0.00,CLR,SCT,0.00,WeatherDisplay:10.37,2013-11-12 12:22:00,
2013-11-12 07:23:00,42.6,35.2,30.10,SW,229,2.3,2.3,75,0.00,CLR,SCT,0.00,WeatherDisplay:10.37,2013-11-12 12:23:00,
2013-11-12 07:27:00,42.8,35.1,30.10,SW,229,0.0,0.0,74,0.00,CLR,SCT,0.00,WeatherDisplay:10.37,2013-11-12 12:27:00,
2013-11-12 07:28:00,42.8,35.1,30.10,SW,229,0.0,0.0,74,0.00,CLR,SCT,0.00,WeatherDisplay:10.37,2013-11-12 12:28:00,
2013-11-12 07:29:00,42.8,35.1,30.10,SW,229,0.0,0.0,74,0.00,CLR,SCT,0.00,WeatherDisplay:10.37,2013-11-12 12:29:00,
2013-11-12 07:30:00,42.9,35.2,30.10,SW,229,3.0,3.0,74,0.00,CLR,SCT,0.00,WeatherDisplay:10.37,2013-11-12 12:30:00,
2013-11-12 07:31:00,42.9,35.2,30.11,SW,229,3.5,3.5,74,0.00,CLR,SCT,0.00,WeatherDisplay:10.37,2013-11-12 12:31:00,
2013-11-12 07:33:00,43.1,35.4,30.11,WSW,244,5.8,5.8,74,0.00,CLR,SCT,0.00,WeatherDisplay:10.37,2013-11-12 12:33:00,
2013-11-12 07:37:00,43.6,35.9,30.10,WSW,244,3.5,3.5,74,0.00,CLR,SCT,0.00,WeatherDisplay:10.37,2013-11-12 12:37:00,
2013-11-12 07:40:00,43.9,35.8,30.11,WSW,244,0.0,0.0,73,0.00,CLR,SCT,0.00,WeatherDisplay:10.37,2013-11-12 12:40:00,
2013-11-12 07:41:00,44.1,36.0,30.11,WSW,244,0.0,0.0,73,0.00,CLR,SCT,0.00,WeatherDisplay:10.37,2013-11-12 12:41:00,
2013-11-12 07:43:00,44.2,36.1,30.11,WSW,244,0.0,0.0,73,0.00,CLR,SCT,0.00,WeatherDisplay:10.37,2013-11-12 12:43:00,
2013-11-12 07:44:00,44.2,36.1,30.11,WSW,244,3.0,3.0,73,0.00,CLR,SCT,0.00,WeatherDisplay:10.37,2013-11-12 12:44:00,
2013-11-12 07:45:00,44.3,36.2,30.11,WSW,244,3.5,3.5,73,0.00,CLR,SCT,0.00,WeatherDisplay:10.37,2013-11-12 12:45:00,
2013-11-12 07:46:00,44.3,36.2,30.11,WSW,244,2.3,2.3,73,0.00,CLR,SCT,0.00,WeatherDisplay:10.37,2013-11-12 12:46:00,
2013-11-12 07:49:00,44.6,36.5,30.11,WSW,244,2.3,2.3,73,0.00,CLR,SCT,0.00,WeatherDisplay:10.37,2013-11-12 12:49:00,
2013-11-12 07:51:00,44.8,36.7,30.11,WSW,244,4.6,4.6,73,0.00,CLR,SCT,0.00,WeatherDisplay:10.37,2013-11-12 12:51:00,
2013-11-12 07:52:00,44.9,36.8,30.12,WSW,244,4.6,4.6,73,0.00,CLR,SCT,0.00,WeatherDisplay:10.37,2013-11-12 12:52:00,
2013-11-12 07:54:00,45.1,36.6,30.12,WSW,244,2.3,2.3,72,0.00,CLR,SCT,0.00,WeatherDisplay:10.37,2013-11-12 12:54:00,
2013-11-12 07:55:00,45.2,36.7,30.11,WSW,244,2.3,2.3,72,0.00,CLR,SCT,0.00,WeatherDisplay:10.37,2013-11-12 12:55:00,
2013-11-12 07:59:00,45.5,37.0,30.11,WSW,244,0.0,0.0,72,0.00,CLR,SCT,0.00,WeatherDisplay:10.37,2013-11-12 12:59:00,
2013-11-12 08:01:00,45.7,37.2,30.11,WSW,244,0.0,0.0,72,0.00,CLR,SCT,0.00,WeatherDisplay:10.37,2013-11-12 13:01:00,
2013-11-12 08:04:00,45.8,36.9,30.12,WSW,244,2.3,2.3,71,0.00,CLR,SCT,0.00,WeatherDisplay:10.37,2013-11-12 13:04:00,
2013-11-12 08:06:00,46.0,37.1,30.12,WSW,244,3.5,3.5,71,0.00,CLR,SCT,0.00,WeatherDisplay:10.37,2013-11-12 13:06:00,
2013-11-12 08:07:00,46.1,37.2,30.12,WSW,244,3.0,3.0,71,0.00,CLR,SCT,0.00,WeatherDisplay:10.37,2013-11-12 13:07:00,
2013-11-12 08:09:00,46.2,37.3,30.12,WSW,244,3.5,3.5,71,0.00,CLR,SCT,0.00,WeatherDisplay:10.37,2013-11-12 13:09:00,
2013-11-12 08:10:00,46.2,37.3,30.12,WSW,244,3.5,3.5,71,0.00,CLR,SCT,0.00,WeatherDisplay:10.37,2013-11-12 13:10:00,
2013-11-12 08:12:00,46.4,37.5,30.12,WSW,244,0.0,0.0,71,0.00,CLR,SCT,0.00,WeatherDisplay:10.37,2013-11-12 13:12:00,
2013-11-12 08:15:00,46.5,37.6,30.12,WSW,244,0.0,0.0,71,0.00,CLR,SCT,0.00,WeatherDisplay:10.37,2013-11-12 13:15:00,
2013-11-12 08:16:00,46.5,37.2,30.12,WSW,244,0.0,0.0,70,0.00,CLR,SCT,0.00,WeatherDisplay:10.37,2013-11-12 13:16:00,
2013-11-12 08:18:00,46.7,37.4,30.12,WSW,244,0.0,0.0,70,0.00,CLR,SCT,0.00,WeatherDisplay:10.37,2013-11-12 13:18:00,
2013-11-12 08:19:00,46.7,37.4,30.12,WSW,244,0.0,0.0,70,0.00,CLR,SCT,0.00,WeatherDisplay:10.37,2013-11-12 13:19:00,
2013-11-12 08:22:00,46.8,37.5,30.13,WSW,244,0.0,0.0,70,0.00,CLR,SCT,0.00,WeatherDisplay:10.37,2013-11-12 13:22:00,
2013-11-12 08:23:00,46.8,37.5,30.13,WSW,244,0.0,0.0,70,0.00,CLR,SCT,0.00,WeatherDisplay:10.37,2013-11-12 13:23:00,
2013-11-12 08:25:00,46.8,37.5,30.13,WSW,244,0.0,0.0,70,0.00,CLR,SCT,0.00,WeatherDisplay:10.37,2013-11-12 13:25:00,
2013-11-12 08:26:00,46.8,37.5,30.13,WSW,244,0.0,0.0,70,0.00,CLR,SCT,0.00,WeatherDisplay:10.37,2013-11-12 13:26:00,
2013-11-12 08:27:00,47.0,37.7,30.13,WSW,244,0.0,0.0,70,0.00,CLR,SCT,0.00,WeatherDisplay:10.37,2013-11-12 13:27:00,
2013-11-12 08:28:00,47.0,37.7,30.13,WSW,244,0.0,0.0,70,0.00,CLR,SCT,0.00,WeatherDisplay:10.37,2013-11-12 13:28:00,
2013-11-12 08:31:00,47.0,37.7,30.13,WSW,244,0.0,0.0,70,0.00,CLR,SCT,0.00,WeatherDisplay:10.37,2013-11-12 13:31:00,
2013-11-12 08:33:00,47.0,37.7,30.13,WSW,244,0.0,0.0,70,0.00,CLR,SCT,0.00,WeatherDisplay:10.37,2013-11-12 13:33:00,
2013-11-12 08:34:00,47.0,37.7,30.13,WSW,244,0.0,0.0,70,0.00,CLR,SCT,0.00,WeatherDisplay:10.37,2013-11-12 13:34:00,
2013-11-12 08:36:00,47.0,37.7,30.14,WSW,244,0.0,0.0,70,0.00,CLR,SCT,0.00,WeatherDisplay:10.37,2013-11-12 13:36:00,
2013-11-12 08:37:00,47.0,37.7,30.14,WSW,244,0.0,0.0,70,0.00,CLR,SCT,0.00,WeatherDisplay:10.37,2013-11-12 13:37:00,
2013-11-12 08:38:00,47.0,37.7,30.14,WSW,244,0.0,0.0,70,0.00,CLR,SCT,0.00,WeatherDisplay:10.37,2013-11-12 13:38:00,
2013-11-12 08:42:00,47.0,37.7,30.14,WSW,244,0.0,0.0,70,0.00,CLR,SCT,0.00,WeatherDisplay:10.37,2013-11-12 13:42:00,
2013-11-12 08:43:00,47.0,37.7,30.14,WSW,244,0.0,0.0,70,0.00,CLR,SCT,0.00,WeatherDisplay:10.37,2013-11-12 13:43:00,
2013-11-12 08:46:00,47.1,37.4,30.14,WSW,244,2.3,2.3,69,0.00,CLR,SCT,0.00,WeatherDisplay:10.37,2013-11-12 13:46:00,
2013-11-12 08:48:00,47.1,37.4,30.14,WSW,244,0.0,0.0,69,0.00,CLR,SCT,0.00,WeatherDisplay:10.37,2013-11-12 13:48:00,
2013-11-12 08:49:00,47.1,37.4,30.14,WSW,244,0.0,0.0,69,0.00,CLR,SCT,0.00,WeatherDisplay:10.37,2013-11-12 13:49:00,
2013-11-12 08:52:00,47.1,37.4,30.14,WSW,244,0.0,0.0,69,0.00,CLR,SCT,0.00,WeatherDisplay:10.37,2013-11-12 13:52:00,
2013-11-12 08:53:00,47.1,37.4,30.14,WSW,244,0.0,0.0,69,0.00,CLR,SCT,0.00,WeatherDisplay:10.37,2013-11-12 13:53:00,
2013-11-12 08:55:00,47.3,37.6,30.14,WSW,244,0.0,0.0,69,0.00,CLR,SCT,0.00,WeatherDisplay:10.37,2013-11-12 13:55:00,
2013-11-12 08:56:00,47.3,37.6,30.14,WSW,244,0.0,0.0,69,0.00,CLR,SCT,0.00,WeatherDisplay:10.37,2013-11-12 13:56:00,
2013-11-12 08:57:00,47.3,37.6,30.14,WSW,244,0.0,0.0,69,0.00,CLR,SCT,0.00,WeatherDisplay:10.37,2013-11-12 13:57:00,
2013-11-12 08:58:00,47.3,37.6,30.14,WSW,244,0.0,0.0,69,0.00,CLR,SCT,0.00,WeatherDisplay:10.37,2013-11-12 13:58:00,
2013-11-12 08:59:00,47.3,37.6,30.14,WSW,244,0.0,0.0,69,0.00,CLR,SCT,0.00,WeatherDisplay:10.37,2013-11-12 13:59:00,
2013-11-12 09:01:00,47.3,38.0,30.15,WSW,244,0.0,0.0,70,0.00,CLR,SCT,0.00,WeatherDisplay:10.37,2013-11-12 14:01:00,
2013-11-12 09:03:00,47.3,37.6,30.15,WSW,244,0.0,0.0,69,0.00,CLR,SCT,0.00,WeatherDisplay:10.37,2013-11-12 14:03:00,
2013-11-12 09:04:00,47.4,38.1,30.15,WSW,244,0.0,0.0,70,0.00,CLR,SCT,0.00,WeatherDisplay:10.37,2013-11-12 14:04:00,
2013-11-12 09:05:00,47.4,37.7,30.15,WSW,244,2.3,2.3,69,0.00,CLR,SCT,0.00,WeatherDisplay:10.37,2013-11-12 14:05:00,
2013-11-12 09:06:00,47.4,37.7,30.15,WSW,244,0.0,0.0,69,0.00,CLR,SCT,0.00,WeatherDisplay:10.37,2013-11-12 14:06:00,
2013-11-12 09:08:00,47.4,37.7,30.15,WSW,244,0.0,0.0,69,0.00,CLR,SCT,0.00,WeatherDisplay:10.37,2013-11-12 14:08:00,
2013-11-12 09:09:00,47.4,37.7,30.15,WSW,245,3.5,3.5,69,0.00,CLR,SCT,0.00,WeatherDisplay:10.37,2013-11-12 14:09:00,
2013-11-12 09:10:00,47.4,37.7,30.15,WSW,245,3.5,3.5,69,0.00,CLR,SCT,0.00,WeatherDisplay:10.37,2013-11-12 14:10:00,
2013-11-12 09:12:00,47.6,37.9,30.15,WSW,244,1.2,1.2,69,0.00,CLR,SCT,0.00,WeatherDisplay:10.37,2013-11-12 14:12:00,
2013-11-12 09:13:00,47.6,37.9,30.15,WSW,245,2.3,2.3,69,0.00,CLR,SCT,0.00,WeatherDisplay:10.37,2013-11-12 14:13:00,
2013-11-12 09:14:00,47.6,37.9,30.15,WSW,245,0.0,0.0,69,0.00,CLR,SCT,0.00,WeatherDisplay:10.37,2013-11-12 14:14:00,
2013-11-12 09:18:00,47.7,38.0,30.15,WSW,245,3.5,3.5,69,0.00,CLR,SCT,0.00,WeatherDisplay:10.37,2013-11-12 14:18:00,
2013-11-12 09:19:00,47.9,38.2,30.15,WSW,245,3.5,3.5,69,0.00,CLR,SCT,0.00,WeatherDisplay:10.37,2013-11-12 14:19:00,
2013-11-12 09:20:00,47.9,38.2,30.15,WSW,245,2.3,0.0,69,0.00,CLR,SCT,0.00,WeatherDisplay:10.37,2013-11-12 14:20:00,
2013-11-12 09:21:00,47.9,38.2,30.15,WSW,245,0.0,0.0,69,0.00,CLR,SCT,0.00,WeatherDisplay:10.37,2013-11-12 14:21:00,
2013-11-12 09:22:00,47.9,38.2,30.15,WSW,245,0.0,0.0,69,0.00,CLR,SCT,0.00,WeatherDisplay:10.37,2013-11-12 14:22:00,
2013-11-12 09:24:00,48.0,38.3,30.15,NNW,337,4.6,4.6,69,0.00,CLR,SCT,0.00,WeatherDisplay:10.37,2013-11-12 14:24:00,
2013-11-12 09:26:00,48.0,38.3,30.15,NNW,341,5.8,5.8,69,0.00,CLR,SCT,0.00,WeatherDisplay:10.37,2013-11-12 14:26:00,
2013-11-12 09:27:00,48.2,38.5,30.15,NNW,341,3.5,3.5,69,0.00,CLR,SCT,0.00,WeatherDisplay:10.37,2013-11-12 14:27:00,
2013-11-12 09:29:00,48.2,38.5,30.16,NNW,346,3.5,3.5,69,0.00,CLR,SCT,0.00,WeatherDisplay:10.37,2013-11-12 14:29:00,
2013-11-12 09:30:00,48.2,38.5,30.16,NNW,346,3.5,3.5,69,0.00,CLR,SCT,0.00,WeatherDisplay:10.37,2013-11-12 14:30:00,
2013-11-12 09:31:00,48.3,38.6,30.16,NW,321,5.0,5.0,69,0.00,CLR,SCT,0.00,WeatherDisplay:10.37,2013-11-12 14:31:00,
2013-11-12 09:34:00,48.3,39.0,30.17,North,360,15.0,15.0,70,0.00,CLR,SCT,0.00,WeatherDisplay:10.37,2013-11-12 14:34:00,
2013-11-12 09:35:00,48.3,39.0,30.17,North,5,17.3,17.3,70,0.00,CLR,SCT,0.00,WeatherDisplay:10.37,2013-11-12 14:35:00,
2013-11-12 09:36:00,48.2,38.9,30.17,NNE,12,11.5,11.5,70,0.00,CLR,SCT,0.00,WeatherDisplay:10.37,2013-11-12 14:36:00,
2013-11-12 09:37:00,48.2,38.9,30.17,North,5,12.0,12.0,70,0.00,CLR,SCT,0.00,WeatherDisplay:10.37,2013-11-12 14:37:00,
2013-11-12 09:41:00,47.4,38.5,30.18,NNE,15,15.0,15.0,71,0.00,CLR,SCT,0.00,WeatherDisplay:10.37,2013-11-12 14:41:00,
2013-11-12 09:42:00,47.1,38.2,30.18,North,355,12.7,12.7,71,0.00,CLR,SCT,0.00,WeatherDisplay:10.37,2013-11-12 14:42:00,
2013-11-12 09:43:00,46.8,37.9,30.18,NE,40,10.4,10.4,71,0.00,CLR,SCT,0.00,WeatherDisplay:10.37,2013-11-12 14:43:00,
2013-11-12 09:45:00,46.5,37.6,30.18,NNE,18,3.5,3.5,71,0.00,CLR,SCT,0.00,WeatherDisplay:10.37,2013-11-12 14:45:00,
2013-11-12 09:47:00,46.2,37.3,30.19,NNE,21,11.0,11.0,71,0.00,CLR,SCT,0.00,WeatherDisplay:10.37,2013-11-12 14:47:00,
2013-11-12 09:49:00,45.8,37.3,30.19,North,355,11.5,11.5,72,0.00,CLR,SCT,0.00,WeatherDisplay:10.37,2013-11-12 14:49:00,
2013-11-12 09:50:00,45.5,37.0,30.19,NNE,13,11.5,11.5,72,0.00,CLR,SCT,0.00,WeatherDisplay:10.37,2013-11-12 14:50:00,
2013-11-12 09:52:00,45.1,36.6,30.19,NNE,19,17.0,17.0,72,0.00,CLR,SCT,0.00,WeatherDisplay:10.37,2013-11-12 14:52:00,
2013-11-12 09:53:00,44.8,36.3,30.19,NNE,17,17.3,17.3,72,0.00,CLR,SCT,0.00,WeatherDisplay:10.37,2013-11-12 14:53:00,
2013-11-12 09:55:00,44.3,35.8,30.19,NNE,13,16.1,16.1,72,0.00,CLR,SCT,0.00,WeatherDisplay:10.37,2013-11-12 14:55:00,
2013-11-12 09:56:00,44.1,35.6,30.20,North,355,16.1,16.1,72,0.00,CLR,SCT,0.00,WeatherDisplay:10.37,2013-11-12 14:56:00,
2013-11-12 09:58:00,43.6,35.2,30.20,NNE,12,12.7,12.7,72,0.00,CLR,SCT,0.00,WeatherDisplay:10.37,2013-11-12 14:58:00,
2013-11-12 09:59:00,43.5,35.1,30.20,NNE,28,11.5,11.5,72,0.00,CLR,SCT,0.00,WeatherDisplay:10.37,2013-11-12 14:59:00,
2013-11-12 10:00:00,43.2,35.1,30.20,NNE,24,10.4,10.4,73,0.00,CLR,SCT,0.00,WeatherDisplay:10.37,2013-11-12 15:00:00,
2013-11-12 10:01:00,43.1,35.0,30.20,NNE,24,10.4,10.4,73,0.00,CLR,SCT,0.00,WeatherDisplay:10.37,2013-11-12 15:01:00,
2013-11-12 10:03:00,42.8,34.7,30.20,North,11,11.5,11.5,73,0.00,CLR,SCT,0.00,WeatherDisplay:10.37,2013-11-12 15:03:00,
2013-11-12 10:04:00,42.6,34.5,30.20,NNE,12,9.2,9.2,73,0.00,CLR,SCT,0.00,WeatherDisplay:10.37,2013-11-12 15:04:00,
2013-11-12 10:06:00,42.5,34.5,30.20,NNE,20,8.1,8.1,73,0.00,CLR,SCT,0.00,WeatherDisplay:10.37,2013-11-12 15:06:00,
2013-11-12 10:07:00,42.3,34.3,30.20,NNE,19,5.8,5.8,73,0.00,CLR,SCT,0.00,WeatherDisplay:10.37,2013-11-12 15:07:00,
2013-11-12 10:08:00,42.2,34.2,30.21,NNE,23,5.8,5.8,73,0.00,CLR,SCT,0.00,WeatherDisplay:10.37,2013-11-12 15:08:00,
2013-11-12 10:11:00,42.1,34.1,30.21,NNE,24,3.5,4.3,73,0.00,CLR,SCT,0.00,WeatherDisplay:10.37,2013-11-12 15:11:00,
2013-11-12 10:13:00,41.9,33.9,30.21,NNE,17,11.5,11.5,73,0.00,CLR,SCT,0.00,WeatherDisplay:10.37,2013-11-12 15:13:00,
2013-11-12 10:14:00,41.8,33.8,30.21,NNE,14,7.0,7.0,73,0.00,CLR,SCT,0.00,WeatherDisplay:10.37,2013-11-12 15:14:00,
2013-11-12 10:15:00,41.8,33.8,30.21,North,5,10.4,10.4,73,0.00,CLR,SCT,0.00,WeatherDisplay:10.37,2013-11-12 15:15:00,
2013-11-12 10:16:00,41.8,33.8,30.21,NNE,15,6.0,6.0,73,0.00,CLR,SCT,0.00,WeatherDisplay:10.37,2013-11-12 15:16:00,
2013-11-12 10:20:00,41.6,33.9,30.21,NNE,15,0.0,0.0,74,0.00,CLR,SCT,0.00,WeatherDisplay:10.37,2013-11-12 15:20:00,
2013-11-12 10:21:00,41.5,33.8,30.21,NE,36,0.0,0.1,74,0.00,CLR,SCT,0.00,WeatherDisplay:10.37,2013-11-12 15:21:00,
2013-11-12 10:22:00,41.5,33.8,30.21,NE,46,6.9,6.9,74,0.00,CLR,SCT,0.00,WeatherDisplay:10.37,2013-11-12 15:22:00,
2013-11-12 10:23:00,41.5,33.8,30.21,NNE,22,10.0,10.0,74,0.00,CLR,SCT,0.00,WeatherDisplay:10.37,2013-11-12 15:23:00,
2013-11-12 10:27:00,41.3,33.6,30.21,NNE,24,10.0,10.0,74,0.00,CLR,SCT,0.00,WeatherDisplay:10.37,2013-11-12 15:27:00,
2013-11-12 10:29:00,41.3,33.6,30.22,NE,44,5.8,5.8,74,0.00,CLR,SCT,0.00,WeatherDisplay:10.37,2013-11-12 15:29:00,
2013-11-12 10:30:00,41.3,33.6,30.22,NE,43,4.0,4.0,74,0.00,CLR,SCT,0.00,WeatherDisplay:10.37,2013-11-12 15:30:00,
2013-11-12 10:31:00,41.3,33.6,30.22,NE,44,3.5,3.5,74,0.00,CLR,SCT,0.00,WeatherDisplay:10.37,2013-11-12 15:31:00,
2013-11-12 10:33:00,41.2,33.5,30.22,NE,44,1.2,0.0,74,0.00,CLR,SCT,0.00,WeatherDisplay:10.37,2013-11-12 15:33:00,
2013-11-12 10:35:00,41.2,33.5,30.22,NE,44,0.0,0.0,74,0.00,CLR,SCT,0.00,WeatherDisplay:10.37,2013-11-12 15:35:00,
2013-11-12 10:36:00,41.2,33.5,30.22,NE,44,0.0,0.0,74,0.00,CLR,SCT,0.00,WeatherDisplay:10.37,2013-11-12 15:36:00,
2013-11-12 10:38:00,41.2,33.5,30.22,NE,46,1.2,0.0,74,0.00,CLR,SCT,0.00,WeatherDisplay:10.37,2013-11-12 15:38:00,
2013-11-12 10:40:00,41.2,33.5,30.22,ENE,77,1.2,1.2,74,0.00,CLR,SCT,0.00,WeatherDisplay:10.37,2013-11-12 15:40:00,
2013-11-12 10:41:00,41.2,33.5,30.22,ENE,73,5.0,5.0,74,0.00,CLR,SCT,0.00,WeatherDisplay:10.37,2013-11-12 15:41:00,
2013-11-12 10:42:00,41.1,33.4,30.22,NE,49,6.9,6.9,74,0.00,CLR,SCT,0.00,WeatherDisplay:10.37,2013-11-12 15:42:00,
2013-11-12 10:43:00,41.1,33.4,30.23,NE,55,5.8,5.8,74,0.00,CLR,SCT,0.00,WeatherDisplay:10.37,2013-11-12 15:43:00,
2013-11-12 10:44:00,41.1,33.4,30.23,ENE,65,6.9,6.9,74,0.00,CLR,SCT,0.00,WeatherDisplay:10.37,2013-11-12 15:44:00,
2013-11-12 10:46:00,41.1,33.4,30.23,NE,49,9.2,9.2,74,0.00,CLR,SCT,0.00,WeatherDisplay:10.37,2013-11-12 15:46:00,
2013-11-12 10:47:00,41.1,33.4,30.23,NE,51,4.6,4.6,74,0.00,CLR,SCT,0.00,WeatherDisplay:10.37,2013-11-12 15:47:00,
2013-11-12 10:48:00,40.9,33.2,30.23,NE,46,5.8,5.8,74,0.00,CLR,SCT,0.00,WeatherDisplay:10.37,2013-11-12 15:48:00,
2013-11-12 10:53:00,40.8,33.2,30.24,ENE,62,5.0,5.0,74,0.00,CLR,SCT,0.00,WeatherDisplay:10.37,2013-11-12 15:53:00,
2013-11-12 10:54:00,40.8,33.2,30.24,NE,55,6.9,6.9,74,0.00,CLR,SCT,0.00,WeatherDisplay:10.37,2013-11-12 15:54:00,
2013-11-12 10:55:00,40.8,33.2,30.24,NE,53,5.8,5.8,74,0.00,CLR,SCT,0.00,WeatherDisplay:10.37,2013-11-12 15:55:00,
2013-11-12 10:56:00,40.8,33.2,30.24,NNE,13,6.0,6.0,74,0.00,CLR,SCT,0.00,WeatherDisplay:10.37,2013-11-12 15:56:00,
2013-11-12 10:57:00,40.6,33.0,30.24,NNE,13,6.9,6.9,74,0.00,CLR,SCT,0.00,WeatherDisplay:10.37,2013-11-12 15:57:00,
2013-11-12 11:00:00,40.6,33.0,30.24,NNE,22,6.9,6.9,74,0.00,CLR,SCT,0.00,WeatherDisplay:10.37,2013-11-12 16:00:00,
2013-11-12 11:01:00,40.5,32.9,30.24,NNE,25,6.9,6.9,74,0.00,CLR,SCT,0.00,WeatherDisplay:10.37,2013-11-12 16:01:00,
2013-11-12 11:02:00,40.5,32.9,30.24,NE,35,4.6,4.6,74,0.00,CLR,SCT,0.00,WeatherDisplay:10.37,2013-11-12 16:02:00,
2013-11-12 11:04:00,40.3,33.0,30.24,East,86,5.0,5.0,75,0.00,CLR,SCT,0.00,WeatherDisplay:10.37,2013-11-12 16:04:00,
2013-11-12 11:05:00,40.3,33.0,30.24,East,88,5.8,5.8,75,0.00,CLR,SCT,0.00,WeatherDisplay:10.37,2013-11-12 16:05:00,
2013-11-12 11:06:00,40.3,33.0,30.24,East,88,5.8,5.8,75,0.00,CLR,SCT,0.00,WeatherDisplay:10.37,2013-11-12 16:06:00,
2013-11-12 11:09:00,40.2,32.9,30.24,East,82,4.6,4.6,75,0.00,CLR,SCT,0.00,WeatherDisplay:10.37,2013-11-12 16:09:00,
2013-11-12 11:10:00,40.1,32.8,30.24,ENE,78,5.0,5.0,75,0.00,CLR,SCT,0.00,WeatherDisplay:10.37,2013-11-12 16:10:00,
2013-11-12 11:11:00,40.1,32.8,30.25,ENE,78,4.6,4.6,75,0.00,CLR,SCT,0.00,WeatherDisplay:10.37,2013-11-12 16:11:00,
2013-11-12 11:13:00,39.9,32.6,30.25,ENE,74,4.6,4.6,75,0.00,CLR,SCT,0.00,WeatherDisplay:10.37,2013-11-12 16:13:00,
2013-11-12 11:15:00,39.9,32.6,30.25,ENE,74,1.2,0.0,75,0.00,CLR,SCT,0.00,WeatherDisplay:10.37,2013-11-12 16:15:00,
2013-11-12 11:17:00,39.8,32.8,30.25,ENE,74,0.0,0.0,76,0.00,CLR,SCT,0.00,WeatherDisplay:10.37,2013-11-12 16:17:00,
2013-11-12 11:19:00,39.6,32.7,30.25,ENE,74,1.2,0.0,76,0.00,CLR,SCT,0.00,WeatherDisplay:10.37,2013-11-12 16:19:00,
2013-11-12 11:21:00,39.6,32.7,30.25,ENE,74,0.0,0.0,76,0.00,CLR,SCT,0.00,WeatherDisplay:10.37,2013-11-12 16:21:00,
2013-11-12 11:24:00,39.5,32.6,30.25,ENE,74,0.0,0.0,76,0.00,CLR,SCT,0.00,WeatherDisplay:10.37,2013-11-12 16:24:00,
2013-11-12 11:25:00,39.5,32.6,30.25,ENE,74,0.0,0.0,76,0.00,CLR,SCT,0.00,WeatherDisplay:10.37,2013-11-12 16:25:00,
2013-11-12 11:27:00,39.5,32.6,30.25,ENE,74,0.0,0.0,76,0.00,CLR,SCT,0.00,WeatherDisplay:10.37,2013-11-12 16:27:00,
2013-11-12 11:29:00,39.3,32.4,30.25,ENE,77,0.0,0.0,76,0.00,CLR,SCT,0.00,WeatherDisplay:10.37,2013-11-12 16:29:00,
2013-11-12 11:32:00,39.3,32.7,30.25,ENE,77,0.0,0.0,77,0.00,CLR,SCT,0.00,WeatherDisplay:10.37,2013-11-12 16:32:00,
2013-11-12 11:33:00,39.2,32.6,30.25,ENE,77,0.0,0.0,77,0.00,CLR,SCT,0.00,WeatherDisplay:10.37,2013-11-12 16:33:00,
2013-11-12 11:34:00,39.2,32.6,30.25,ENE,77,0.0,0.0,77,0.00,CLR,SCT,0.00,WeatherDisplay:10.37,2013-11-12 16:34:00,
2013-11-12 11:37:00,39.1,32.5,30.25,ENE,62,9.0,9.0,77,0.00,CLR,SCT,0.00,WeatherDisplay:10.37,2013-11-12 16:37:00,
2013-11-12 11:38:00,39.1,32.5,30.25,ENE,78,9.2,9.2,77,0.00,CLR,SCT,0.00,WeatherDisplay:10.37,2013-11-12 16:38:00,
2013-11-12 11:41:00,38.9,32.3,30.25,East,94,9.2,9.2,77,0.00,CLR,SCT,0.00,WeatherDisplay:10.37,2013-11-12 16:41:00,
2013-11-12 11:43:00,38.6,32.3,30.24,East,84,5.8,5.8,78,0.00,CLR,SCT,0.00,WeatherDisplay:10.37,2013-11-12 16:43:00,
2013-11-12 11:44:00,38.5,32.2,30.24,East,95,6.0,6.0,78,0.00,CLR,SCT,0.00,WeatherDisplay:10.37,2013-11-12 16:44:00,
2013-11-12 11:45:00,38.5,32.2,30.24,ESE,107,8.1,8.1,78,0.00,CLR,SCT,0.00,WeatherDisplay:10.37,2013-11-12 16:45:00,
2013-11-12 11:46:00,38.3,32.0,30.24,East,92,8.1,8.1,78,0.00,CLR,SCT,0.00,WeatherDisplay:10.37,2013-11-12 16:46:00,
2013-11-12 11:48:00,38.2,31.9,30.24,East,98,6.9,6.9,78,0.00,CLR,SCT,0.00,WeatherDisplay:10.37,2013-11-12 16:48:00,
2013-11-12 11:50:00,37.9,31.7,30.24,East,91,8.1,8.1,78,0.00,CLR,SCT,0.00,WeatherDisplay:10.37,2013-11-12 16:50:00,
2013-11-12 11:53:00,37.6,31.4,30.24,East,92,5.8,5.8,78,0.00,CLR,SCT,0.00,WeatherDisplay:10.37,2013-11-12 16:53:00,
2013-11-12 11:54:00,37.5,31.3,30.24,East,96,6.0,6.0,78,0.00,CLR,SCT,0.00,WeatherDisplay:10.37,2013-11-12 16:54:00,
2013-11-12 11:55:00,37.3,31.1,30.24,East,95,5.8,5.8,78,0.00,CLR,SCT,0.00,WeatherDisplay:10.37,2013-11-12 16:55:00,
2013-11-12 11:59:00,37.0,31.1,30.24,East,86,4.6,4.6,79,0.00,CLR,SCT,0.00,WeatherDisplay:10.37,2013-11-12 16:59:00,
2013-11-12 12:00:00,37.0,31.1,30.24,East,86,4.6,4.6,79,0.00,CLR,SCT,0.00,WeatherDisplay:10.37,2013-11-12 17:00:00,
2013-11-12 12:01:00,36.9,31.0,30.24,East,86,4.6,4.6,79,0.00,CLR,SCT,0.00,WeatherDisplay:10.37,2013-11-12 17:01:00,
2013-11-12 12:06:00,36.9,31.0,30.24,East,82,3.5,3.8,79,0.00,CLR,SCT,0.00,WeatherDisplay:10.37,2013-11-12 17:06:00,
2013-11-12 12:07:00,36.8,30.9,30.24,East,82,4.6,4.6,79,0.00,CLR,SCT,0.00,WeatherDisplay:10.37,2013-11-12 17:07:00,
2013-11-12 12:08:00,36.8,30.9,30.24,East,82,4.0,4.0,79,0.00,CLR,SCT,0.00,WeatherDisplay:10.37,2013-11-12 17:08:00,
2013-11-12 12:09:00,36.8,30.9,30.24,East,82,4.0,4.0,79,0.00,CLR,SCT,0.00,WeatherDisplay:10.37,2013-11-12 17:09:00,
2013-11-12 12:11:00,36.8,30.9,30.24,East,85,3.5,4.7,79,0.00,CLR,SCT,0.00,WeatherDisplay:10.37,2013-11-12 17:11:00,
2013-11-12 12:14:00,36.8,31.2,30.24,East,85,4.0,4.0,80,0.00,CLR,SCT,0.00,WeatherDisplay:10.37,2013-11-12 17:14:00,
2013-11-12 12:17:00,36.8,31.2,30.25,East,84,4.6,4.6,80,0.00,CLR,SCT,0.00,WeatherDisplay:10.37,2013-11-12 17:17:00,
2013-11-12 12:18:00,36.8,31.2,30.25,East,84,3.5,3.5,80,0.00,CLR,SCT,0.00,WeatherDisplay:10.37,2013-11-12 17:18:00,
2013-11-12 12:19:00,36.8,31.2,30.25,East,84,4.0,4.0,80,0.00,CLR,SCT,0.00,WeatherDisplay:10.37,2013-11-12 17:19:00,
2013-11-12 12:20:00,36.8,31.2,30.25,East,85,4.6,4.6,80,0.00,CLR,SCT,0.00,WeatherDisplay:10.37,2013-11-12 17:20:00,
2013-11-12 12:22:00,36.8,31.2,30.25,East,86,4.6,4.6,80,0.00,CLR,SCT,0.00,WeatherDisplay:10.37,2013-11-12 17:22:00,
2013-11-12 12:24:00,36.9,31.3,30.25,East,86,4.6,4.6,80,0.00,CLR,SCT,0.00,WeatherDisplay:10.37,2013-11-12 17:24:00,
2013-11-12 12:26:00,36.9,31.3,30.25,East,86,3.5,3.5,80,0.00,CLR,SCT,0.00,WeatherDisplay:10.37,2013-11-12 17:26:00,
2013-11-12 12:27:00,36.9,31.3,30.25,East,92,5.8,5.8,80,0.00,CLR,SCT,0.00,WeatherDisplay:10.37,2013-11-12 17:27:00,
2013-11-12 12:28:00,36.9,31.3,30.25,East,92,5.0,5.0,80,0.00,CLR,SCT,0.00,WeatherDisplay:10.37,2013-11-12 17:28:00,
2013-11-12 12:31:00,36.9,31.3,30.25,East,92,4.6,4.6,80,0.00,CLR,SCT,0.00,WeatherDisplay:10.37,2013-11-12 17:31:00,
2013-11-12 12:33:00,37.0,31.4,30.25,East,92,3.5,3.5,80,0.00,CLR,SCT,0.00,WeatherDisplay:10.37,2013-11-12 17:33:00,
2013-11-12 12:35:00,37.0,31.4,30.26,East,92,3.5,3.5,80,0.00,CLR,SCT,0.00,WeatherDisplay:10.37,2013-11-12 17:35:00,
2013-11-12 12:36:00,37.0,31.4,30.26,East,93,4.0,4.0,80,0.00,CLR,SCT,0.00,WeatherDisplay:10.37,2013-11-12 17:36:00,
2013-11-12 12:37:00,36.9,31.3,30.26,East,94,4.6,4.6,80,0.00,CLR,SCT,0.00,WeatherDisplay:10.37,2013-11-12 17:37:00,
2013-11-12 12:38:00,36.9,31.3,30.26,East,94,4.6,4.6,80,0.00,CLR,SCT,0.00,WeatherDisplay:10.37,2013-11-12 17:38:00,
2013-11-12 12:42:00,36.9,31.3,30.26,East,94,0.0,0.0,80,0.00,CLR,SCT,0.00,WeatherDisplay:10.37,2013-11-12 17:42:00,
2013-11-12 12:43:00,36.9,31.3,30.26,East,94,0.0,0.0,80,0.00,CLR,SCT,0.00,WeatherDisplay:10.37,2013-11-12 17:43:00,
2013-11-12 12:44:00,36.9,31.3,30.26,East,94,0.0,0.0,80,0.00,CLR,SCT,0.00,WeatherDisplay:10.37,2013-11-12 17:44:00,
2013-11-12 12:45:00,36.9,31.3,30.26,East,94,0.0,0.0,80,0.00,CLR,SCT,0.00,WeatherDisplay:10.37,2013-11-12 17:45:00,
2013-11-12 12:46:00,36.9,31.3,30.26,East,94,0.0,0.0,80,0.00,CLR,SCT,0.00,WeatherDisplay:10.37,2013-11-12 17:46:00,
2013-11-12 12:49:00,36.9,31.3,30.26,East,94,3.5,3.5,80,0.00,CLR,SCT,0.00,WeatherDisplay:10.37,2013-11-12 17:49:00,
2013-11-12 12:51:00,36.9,31.3,30.26,East,94,4.6,4.6,80,0.00,CLR,SCT,0.00,WeatherDisplay:10.37,2013-11-12 17:51:00,
2013-11-12 12:52:00,36.9,31.6,30.26,East,93,3.5,3.5,81,0.00,CLR,SCT,0.00,WeatherDisplay:10.37,2013-11-12 17:52:00,
2013-11-12 12:55:00,36.9,31.6,30.26,East,93,3.5,3.5,81,0.00,CLR,SCT,0.00,WeatherDisplay:10.37,2013-11-12 17:55:00,
2013-11-12 12:56:00,36.9,31.6,30.26,East,93,3.5,3.5,81,0.00,CLR,SCT,0.00,WeatherDisplay:10.37,2013-11-12 17:56:00,
2013-11-12 12:58:00,36.9,31.6,30.26,East,92,3.5,3.5,81,0.00,CLR,SCT,0.00,WeatherDisplay:10.37,2013-11-12 17:58:00,
2013-11-12 13:01:00,37.0,31.7,30.26,East,92,3.5,3.5,81,0.00,CLR,SCT,0.00,WeatherDisplay:10.37,2013-11-12 18:01:00,
2013-11-12 13:03:00,37.0,31.7,30.26,East,92,3.5,3.5,81,0.00,CLR,SCT,0.00,WeatherDisplay:10.37,2013-11-12 18:03:00,
2013-11-12 13:04:00,37.0,31.7,30.26,East,92,3.5,3.5,81,0.00,CLR,SCT,0.00,WeatherDisplay:10.37,2013-11-12 18:04:00,
2013-11-12 13:08:00,37.0,31.7,30.26,East,92,3.5,3.5,81,0.00,CLR,SCT,0.00,WeatherDisplay:10.37,2013-11-12 18:08:00,
2013-11-12 13:09:00,37.0,31.7,30.26,East,92,2.3,2.3,81,0.00,CLR,SCT,0.00,WeatherDisplay:10.37,2013-11-12 18:09:00,
2013-11-12 13:10:00,36.9,31.6,30.26,East,92,0.0,0.0,81,0.00,CLR,SCT,0.00,WeatherDisplay:10.37,2013-11-12 18:10:00,
2013-11-12 13:12:00,37.0,31.4,30.26,East,92,0.0,0.0,80,0.00,CLR,SCT,0.00,WeatherDisplay:10.37,2013-11-12 18:12:00,
2013-11-12 13:15:00,37.0,31.4,30.26,East,92,0.0,0.0,80,0.00,CLR,SCT,0.00,WeatherDisplay:10.37,2013-11-12 18:15:00,
2013-11-12 13:16:00,37.0,31.4,30.26,East,92,0.0,0.0,80,0.00,CLR,SCT,0.00,WeatherDisplay:10.37,2013-11-12 18:16:00,
2013-11-12 13:17:00,37.0,31.4,30.26,East,92,0.0,0.0,80,0.00,CLR,SCT,0.00,WeatherDisplay:10.37,2013-11-12 18:17:00,
2013-11-12 13:20:00,37.0,31.4,30.27,North,5,10.4,10.4,80,0.00,CLR,SCT,0.00,WeatherDisplay:10.37,2013-11-12 18:20:00,
2013-11-12 13:21:00,36.9,31.3,30.27,NNW,347,11.5,11.5,80,0.00,CLR,SCT,0.00,WeatherDisplay:10.37,2013-11-12 18:21:00,
2013-11-12 13:22:00,36.9,31.0,30.27,NNE,25,11.5,11.5,79,0.00,CLR,SCT,0.00,WeatherDisplay:10.37,2013-11-12 18:22:00,
2013-11-12 13:24:00,36.9,31.0,30.27,NNE,14,6.9,6.9,79,0.00,CLR,SCT,0.00,WeatherDisplay:10.37,2013-11-12 18:24:00,
2013-11-12 13:25:00,36.9,31.0,30.27,NNE,15,5.8,5.8,79,0.00,CLR,SCT,0.00,WeatherDisplay:10.37,2013-11-12 18:25:00,
2013-11-12 13:27:00,36.9,31.0,30.27,NNE,15,2.3,2.3,79,0.00,CLR,SCT,0.00,WeatherDisplay:10.37,2013-11-12 18:27:00,
2013-11-12 13:29:00,36.9,31.0,30.27,NNE,15,0.0,0.0,79,0.00,CLR,SCT,0.00,WeatherDisplay:10.37,2013-11-12 18:29:00,
2013-11-12 13:30:00,36.9,31.0,30.27,NNE,14,0.0,0.0,79,0.00,CLR,SCT,0.00,WeatherDisplay:10.37,2013-11-12 18:30:00,
2013-11-12 13:31:00,36.9,31.0,30.27,NNE,14,0.0,0.0,79,0.00,CLR,SCT,0.00,WeatherDisplay:10.37,2013-11-12 18:31:00,
2013-11-12 13:32:00,36.9,31.0,30.27,NNE,13,0.0,0.0,79,0.00,CLR,SCT,0.00,WeatherDisplay:10.37,2013-11-12 18:32:00,
2013-11-12 13:35:00,36.9,31.0,30.27,North,360,8.0,8.0,79,0.00,CLR,SCT,0.00,WeatherDisplay:10.37,2013-11-12 18:35:00,
2013-11-12 13:36:00,36.9,31.0,30.27,North,5,8.1,8.1,79,0.00,CLR,SCT,0.00,WeatherDisplay:10.37,2013-11-12 18:36:00,
2013-11-12 13:37:00,36.8,30.9,30.27,North,9,5.8,5.8,79,0.00,CLR,SCT,0.00,WeatherDisplay:10.37,2013-11-12 18:37:00,
2013-11-12 13:41:00,36.8,30.9,30.27,NE,47,7.0,7.0,79,0.00,CLR,SCT,0.00,WeatherDisplay:10.37,2013-11-12 18:41:00,
2013-11-12 13:42:00,36.8,30.9,30.27,NNE,33,10.4,10.4,79,0.00,CLR,SCT,0.00,WeatherDisplay:10.37,2013-11-12 18:42:00,
2013-11-12 13:43:00,36.8,30.9,30.27,NNE,19,9.2,9.2,79,0.00,CLR,SCT,0.00,WeatherDisplay:10.37,2013-11-12 18:43:00,
2013-11-12 13:44:00,36.8,30.9,30.27,NNE,20,9.2,9.2,79,0.00,CLR,SCT,0.00,WeatherDisplay:10.37,2013-11-12 18:44:00,
2013-11-12 13:45:00,36.8,30.9,30.27,NNE,17,8.1,8.1,79,0.00,CLR,SCT,0.00,WeatherDisplay:10.37,2013-11-12 18:45:00,
2013-11-12 13:48:00,36.8,30.9,30.27,NNE,24,11.5,11.5,79,0.00,CLR,SCT,0.00,WeatherDisplay:10.37,2013-11-12 18:48:00,
2013-11-12 13:50:00,36.6,30.4,30.28,North,355,15.0,15.0,78,0.00,CLR,SCT,0.00,WeatherDisplay:10.37,2013-11-12 18:50:00,
2013-11-12 13:51:00,36.5,30.3,30.28,NNW,334,15.0,15.0,78,0.00,CLR,SCT,0.00,WeatherDisplay:10.37,2013-11-12 18:51:00,
2013-11-12 13:53:00,36.5,30.3,30.28,North,11,10.4,10.4,78,0.00,CLR,SCT,0.00,WeatherDisplay:10.37,2013-11-12 18:53:00,
2013-11-12 13:54:00,36.3,30.1,30.28,NNE,19,11.5,11.5,78,0.00,CLR,SCT,0.00,WeatherDisplay:10.37,2013-11-12 18:54:00,
2013-11-12 13:55:00,36.2,30.0,30.28,North,355,11.5,11.5,78,0.00,CLR,SCT,0.00,WeatherDisplay:10.37,2013-11-12 18:55:00,
2013-11-12 13:57:00,36.2,30.0,30.29,North,5,4.6,4.6,78,0.00,CLR,SCT,0.00,WeatherDisplay:10.37,2013-11-12 18:57:00,
2013-11-12 13:59:00,36.0,29.8,30.29,NNE,22,6.0,6.0,78,0.00,CLR,SCT,0.00,WeatherDisplay:10.37,2013-11-12 18:59:00,
2013-11-12 14:01:00,35.9,29.7,30.29,NNE,21,5.8,5.8,78,0.00,CLR,SCT,0.00,WeatherDisplay:10.37,2013-11-12 19:01:00,
2013-11-12 14:02:00,35.9,29.7,30.29,North,5,7.0,7.0,78,0.00,CLR,SCT,0.00,WeatherDisplay:10.37,2013-11-12 19:02:00,
2013-11-12 14:03:00,35.9,29.7,30.29,North,5,11.5,11.5,78,0.00,CLR,SCT,0.00,WeatherDisplay:10.37,2013-11-12 19:03:00,
2013-11-12 14:06:00,35.8,29.6,30.28,NNE,15,8.1,8.1,78,0.00,CLR,SCT,0.00,WeatherDisplay:10.37,2013-11-12 19:06:00,
2013-11-12 14:07:00,35.6,29.4,30.28,NNW,340,9.2,9.2,78,0.00,CLR,SCT,0.00,WeatherDisplay:10.37,2013-11-12 19:07:00,
2013-11-12 14:08:00,35.6,29.4,30.28,NNE,17,7.0,7.0,78,0.00,CLR,SCT,0.00,WeatherDisplay:10.37,2013-11-12 19:08:00,
2013-11-12 14:09:00,35.5,29.3,30.28,NE,35,6.9,6.9,78,0.00,CLR,SCT,0.00,WeatherDisplay:10.37,2013-11-12 19:09:00,
2013-11-12 14:12:00,35.5,29.3,30.28,NE,36,1.2,0.0,78,0.00,CLR,SCT,0.00,WeatherDisplay:10.37,2013-11-12 19:12:00,
2013-11-12 14:15:00,35.3,29.1,30.28,NNE,31,11.5,11.5,78,0.00,CLR,SCT,0.00,WeatherDisplay:10.37,2013-11-12 19:15:00,
2013-11-12 14:16:00,35.3,29.1,30.28,NE,36,10.4,10.4,78,0.00,CLR,SCT,0.00,WeatherDisplay:10.37,2013-11-12 19:16:00,
2013-11-12 14:17:00,35.2,29.0,30.28,NNE,32,6.9,6.9,78,0.00,CLR,SCT,0.00,WeatherDisplay:10.37,2013-11-12 19:17:00,
2013-11-12 14:18:00,35.2,29.0,30.28,NE,44,11.5,11.5,78,0.00,CLR,SCT,0.00,WeatherDisplay:10.37,2013-11-12 19:18:00,
2013-11-12 14:21:00,35.2,29.0,30.28,NE,47,7.0,7.0,78,0.00,CLR,SCT,0.00,WeatherDisplay:10.37,2013-11-12 19:21:00,
2013-11-12 14:23:00,35.0,28.8,30.28,NE,44,5.8,5.8,78,0.00,CLR,SCT,0.00,WeatherDisplay:10.37,2013-11-12 19:23:00,
2013-11-12 14:26:00,35.0,29.1,30.28,NE,43,4.6,4.6,79,0.00,CLR,SCT,0.00,WeatherDisplay:10.37,2013-11-12 19:26:00,
2013-11-12 14:28:00,35.2,29.3,30.28,NNE,22,6.9,6.9,79,0.00,CLR,SCT,0.00,WeatherDisplay:10.37,2013-11-12 19:28:00,
2013-11-12 14:30:00,35.2,29.3,30.29,NNE,20,9.2,9.2,79,0.00,CLR,SCT,0.00,WeatherDisplay:10.37,2013-11-12 19:30:00,
2013-11-12 14:31:00,35.2,29.3,30.29,NNE,19,9.2,9.2,79,0.00,CLR,SCT,0.00,WeatherDisplay:10.37,2013-11-12 19:31:00,
2013-11-12 14:35:00,35.3,29.4,30.29,NNE,26,5.8,5.8,79,0.00,CLR,SCT,0.00,WeatherDisplay:10.37,2013-11-12 19:35:00,
2013-11-12 14:37:00,35.3,29.4,30.28,NNE,28,6.0,6.0,79,0.00,CLR,SCT,0.00,WeatherDisplay:10.37,2013-11-12 19:37:00,
2013-11-12 14:38:00,35.3,29.4,30.28,NNE,32,5.8,5.8,79,0.00,CLR,SCT,0.00,WeatherDisplay:10.37,2013-11-12 19:38:00,
2013-11-12 14:39:00,35.3,29.4,30.28,NE,39,5.0,5.0,79,0.00,CLR,SCT,0.00,WeatherDisplay:10.37,2013-11-12 19:39:00,
2013-11-12 14:41:00,35.3,29.4,30.29,NE,39,4.0,4.0,79,0.00,CLR,SCT,0.00,WeatherDisplay:10.37,2013-11-12 19:41:00,
2013-11-12 14:43:00,35.5,29.3,30.29,NE,38,4.6,4.6,78,0.00,CLR,SCT,0.00,WeatherDisplay:10.37,2013-11-12 19:43:00,
2013-11-12 14:45:00,35.5,29.3,30.29,NE,38,4.6,4.6,78,0.00,CLR,SCT,0.00,WeatherDisplay:10.37,2013-11-12 19:45:00,
2013-11-12 14:47:00,35.6,29.4,30.29,NE,38,5.8,5.8,78,0.00,CLR,SCT,0.00,WeatherDisplay:10.37,2013-11-12 19:47:00,
2013-11-12 14:48:00,35.6,29.4,30.29,NE,38,4.0,4.0,78,0.00,CLR,SCT,0.00,WeatherDisplay:10.37,2013-11-12 19:48:00,
2013-11-12 14:49:00,35.6,29.4,30.29,NE,38,4.6,4.6,78,0.00,CLR,SCT,0.00,WeatherDisplay:10.37,2013-11-12 19:49:00,
2013-11-12 14:50:00,35.6,29.4,30.29,NE,36,8.1,8.1,78,0.00,CLR,SCT,0.00,WeatherDisplay:10.37,2013-11-12 19:50:00,
2013-11-12 14:52:00,35.8,29.6,30.29,NNE,18,10.4,10.4,78,0.00,CLR,SCT,0.00,WeatherDisplay:10.37,2013-11-12 19:52:00,
2013-11-12 14:55:00,35.8,29.3,30.29,NNE,26,10.4,10.4,77,0.00,CLR,SCT,0.00,WeatherDisplay:10.37,2013-11-12 19:55:00,
2013-11-12 14:59:00,35.8,29.3,30.29,NE,42,11.5,11.5,77,0.00,CLR,SCT,0.00,WeatherDisplay:10.37,2013-11-12 19:59:00,
2013-11-12 15:00:00,35.8,29.3,30.29,NNE,12,11.5,11.5,77,0.00,CLR,SCT,0.00,WeatherDisplay:10.37,2013-11-12 20:00:00,
2013-11-12 15:02:00,35.8,29.3,30.29,NNE,14,11.5,11.5,77,0.00,CLR,SCT,0.00,WeatherDisplay:10.37,2013-11-12 20:02:00,
2013-11-12 15:05:00,35.6,28.8,30.29,NNE,21,11.5,11.5,76,0.00,CLR,SCT,0.00,WeatherDisplay:10.37,2013-11-12 20:05:00,
2013-11-12 15:06:00,35.6,28.8,30.29,NNE,24,11.5,11.5,76,0.00,CLR,SCT,0.00,WeatherDisplay:10.37,2013-11-12 20:06:00,
2013-11-12 15:07:00,35.6,28.8,30.29,NNE,13,11.5,11.5,76,0.00,CLR,SCT,0.00,WeatherDisplay:10.37,2013-11-12 20:07:00,
2013-11-12 15:09:00,35.5,28.7,30.29,North,5,12.7,12.7,76,0.00,CLR,SCT,0.00,WeatherDisplay:10.37,2013-11-12 20:09:00,
2013-11-12 15:11:00,35.5,28.4,30.29,North,351,12.7,12.7,75,0.00,CLR,SCT,0.00,WeatherDisplay:10.37,2013-11-12 20:11:00,
2013-11-12 15:12:00,35.5,28.4,30.29,NNE,13,12.7,12.7,75,0.00,CLR,SCT,0.00,WeatherDisplay:10.37,2013-11-12 20:12:00,
2013-11-12 15:13:00,35.5,28.4,30.29,North,11,11.5,11.5,75,0.00,CLR,SCT,0.00,WeatherDisplay:10.37,2013-11-12 20:13:00,
2013-11-12 15:14:00,35.5,28.4,30.29,NNE,28,10.4,10.4,75,0.00,CLR,SCT,0.00,WeatherDisplay:10.37,2013-11-12 20:14:00,
2013-11-12 15:16:00,35.5,28.4,30.29,NNE,30,10.4,10.4,75,0.00,CLR,SCT,0.00,WeatherDisplay:10.37,2013-11-12 20:16:00,
2013-11-12 15:17:00,35.5,28.4,30.30,NNE,29,9.2,9.2,75,0.00,CLR,SCT,0.00,WeatherDisplay:10.37,2013-11-12 20:17:00,
2013-11-12 15:18:00,35.5,28.4,30.30,NNE,30,9.2,9.2,75,0.00,CLR,SCT,0.00,WeatherDisplay:10.37,2013-11-12 20:18:00,
2013-11-12 15:19:00,35.5,28.4,30.30,NNE,25,9.2,9.2,75,0.00,CLR,SCT,0.00,WeatherDisplay:10.37,2013-11-12 20:19:00,
2013-11-12 15:20:00,35.5,28.4,30.30,NNE,21,9.2,9.2,75,0.00,CLR,SCT,0.00,WeatherDisplay:10.37,2013-11-12 20:20:00,
2013-11-12 15:21:00,35.5,28.4,30.30,NNE,21,9.2,9.2,75,0.00,CLR,SCT,0.00,WeatherDisplay:10.37,2013-11-12 20:21:00,
2013-11-12 15:23:00,35.5,28.0,30.30,NNE,20,13.8,13.8,74,0.00,CLR,SCT,0.00,WeatherDisplay:10.37,2013-11-12 20:23:00,
2013-11-12 15:27:00,35.5,28.0,30.30,NNE,32,10.4,10.4,74,0.00,CLR,SCT,0.00,WeatherDisplay:10.37,2013-11-12 20:27:00,
2013-11-12 15:28:00,35.3,27.8,30.30,North,11,11.5,11.5,74,0.00,CLR,SCT,0.00,WeatherDisplay:10.37,2013-11-12 20:28:00,
2013-11-12 15:30:00,35.3,27.8,30.31,NE,46,8.1,8.1,74,0.00,CLR,SCT,0.00,WeatherDisplay:10.37,2013-11-12 20:30:00,
2013-11-12 15:32:00,35.3,27.8,30.31,NE,46,11.5,11.5,74,0.00,CLR,SCT,0.00,WeatherDisplay:10.37,2013-11-12 20:32:00,
2013-11-12 15:35:00,35.2,27.4,30.31,NNE,25,13.8,13.8,73,0.00,CLR,SCT,0.00,WeatherDisplay:10.37,2013-11-12 20:35:00,
2013-11-12 15:37:00,35.2,27.4,30.31,NNE,21,12.7,12.7,73,0.00,CLR,SCT,0.00,WeatherDisplay:10.37,2013-11-12 20:37:00,
2013-11-12 15:39:00,35.0,27.2,30.31,North,10,13.8,13.8,73,0.00,CLR,SCT,0.00,WeatherDisplay:10.37,2013-11-12 20:39:00,
2013-11-12 15:40:00,35.0,27.2,30.31,NE,34,11.5,11.5,73,0.00,CLR,SCT,0.00,WeatherDisplay:10.37,2013-11-12 20:40:00,
2013-11-12 15:41:00,35.0,27.2,30.31,NNE,20,14.0,14.0,73,0.00,CLR,SCT,0.00,WeatherDisplay:10.37,2013-11-12 20:41:00,
2013-11-12 15:42:00,35.0,27.2,30.31,NE,36,15.0,15.0,73,0.00,CLR,SCT,0.00,WeatherDisplay:10.37,2013-11-12 20:42:00,
2013-11-12 15:45:00,34.9,27.1,30.31,NNE,18,10.4,10.4,73,0.00,CLR,SCT,0.00,WeatherDisplay:10.37,2013-11-12 20:45:00,
2013-11-12 15:47:00,34.9,27.1,30.31,NNE,17,13.8,13.8,73,0.00,CLR,SCT,0.00,WeatherDisplay:10.37,2013-11-12 20:47:00,
2013-11-12 15:48:00,34.9,27.1,30.31,NNE,25,12.7,12.7,73,0.00,CLR,SCT,0.00,WeatherDisplay:10.37,2013-11-12 20:48:00,
2013-11-12 15:49:00,34.7,26.9,30.32,NNE,32,11.5,11.5,73,0.00,CLR,SCT,0.00,WeatherDisplay:10.37,2013-11-12 20:49:00,
2013-11-12 15:50:00,34.7,26.9,30.32,NE,34,13.8,13.8,73,0.00,CLR,SCT,0.00,WeatherDisplay:10.37,2013-11-12 20:50:00,
2013-11-12 15:52:00,34.7,26.9,30.32,NNE,30,14.0,14.0,73,0.00,CLR,SCT,0.00,WeatherDisplay:10.37,2013-11-12 20:52:00,
2013-11-12 15:53:00,34.6,26.5,30.32,NNE,19,16.1,16.1,72,0.00,CLR,SCT,0.00,WeatherDisplay:10.37,2013-11-12 20:53:00,
2013-11-12 15:54:00,34.6,26.5,30.32,NNE,22,15.0,15.0,72,0.00,CLR,SCT,0.00,WeatherDisplay:10.37,2013-11-12 20:54:00,
2013-11-12 15:55:00,34.6,26.5,30.32,NNE,13,13.8,13.8,72,0.00,CLR,SCT,0.00,WeatherDisplay:10.37,2013-11-12 20:55:00,
2013-11-12 15:57:00,34.6,26.5,30.32,North,5,11.5,11.5,72,0.00,CLR,SCT,0.00,WeatherDisplay:10.37,2013-11-12 20:57:00,
2013-11-12 15:59:00,34.4,26.3,30.32,NNE,29,12.7,12.7,72,0.00,CLR,SCT,0.00,WeatherDisplay:10.37,2013-11-12 20:59:00,
2013-11-12 16:00:00,34.4,26.3,30.32,NE,34,11.5,11.5,72,0.00,CLR,SCT,0.00,WeatherDisplay:10.37,2013-11-12 21:00:00,
2013-11-12 16:02:00,34.4,26.3,30.32,NNE,24,11.5,11.5,72,0.00,CLR,SCT,0.00,WeatherDisplay:10.37,2013-11-12 21:02:00,
2013-11-12 16:04:00,34.4,26.3,30.32,NNE,15,16.1,16.1,72,0.00,CLR,SCT,0.00,WeatherDisplay:10.37,2013-11-12 21:04:00,
2013-11-12 16:05:00,34.4,26.3,30.32,NE,40,10.4,10.4,72,0.00,CLR,SCT,0.00,WeatherDisplay:10.37,2013-11-12 21:05:00,
2013-11-12 16:07:00,34.4,26.3,30.32,NNE,19,15.0,15.0,72,0.00,CLR,SCT,0.00,WeatherDisplay:10.37,2013-11-12 21:07:00,
2013-11-12 16:09:00,34.3,26.2,30.32,NNE,12,15.0,15.0,72,0.00,CLR,SCT,0.00,WeatherDisplay:10.37,2013-11-12 21:09:00,
2013-11-12 16:10:00,34.3,26.2,30.32,NNW,343,11.5,11.5,72,0.00,CLR,SCT,0.00,WeatherDisplay:10.37,2013-11-12 21:10:00,
2013-11-12 16:11:00,34.3,26.2,30.32,NNE,13,11.5,11.5,72,0.00,CLR,SCT,0.00,WeatherDisplay:10.37,2013-11-12 21:11:00,
2013-11-12 16:12:00,34.3,25.9,30.33,NNE,24,9.2,9.2,71,0.00,CLR,SCT,0.00,WeatherDisplay:10.37,2013-11-12 21:12:00,
2013-11-12 16:16:00,34.1,25.7,30.33,NNE,17,11.5,11.5,71,0.00,CLR,SCT,0.00,WeatherDisplay:10.37,2013-11-12 21:16:00,
2013-11-12 16:17:00,34.1,25.7,30.33,NNE,22,11.5,11.5,71,0.00,CLR,SCT,0.00,WeatherDisplay:10.37,2013-11-12 21:17:00,
2013-11-12 16:19:00,34.1,25.7,30.33,NNE,17,15.0,15.0,71,0.00,CLR,SCT,0.00,WeatherDisplay:10.37,2013-11-12 21:19:00,
2013-11-12 16:23:00,34.0,25.2,30.34,NNE,15,11.5,11.5,70,0.00,CLR,SCT,0.00,WeatherDisplay:10.37,2013-11-12 21:23:00,
2013-11-12 16:24:00,34.0,25.2,30.34,NNE,13,11.5,11.5,70,0.00,CLR,SCT,0.00,WeatherDisplay:10.37,2013-11-12 21:24:00,
2013-11-12 16:25:00,33.8,25.0,30.34,NNE,23,11.5,11.5,70,0.00,CLR,SCT,0.00,WeatherDisplay:10.37,2013-11-12 21:25:00,
2013-11-12 16:29:00,33.8,25.0,30.34,NNE,21,9.2,9.2,70,0.00,CLR,SCT,0.00,WeatherDisplay:10.37,2013-11-12 21:29:00,
2013-11-12 16:30:00,33.7,25.0,30.34,NNE,28,9.2,9.2,70,0.00,CLR,SCT,0.00,WeatherDisplay:10.37,2013-11-12 21:30:00,
2013-11-12 16:31:00,33.7,25.0,30.34,NNE,25,11.5,11.5,70,0.00,CLR,SCT,0.00,WeatherDisplay:10.37,2013-11-12 21:31:00,
2013-11-12 16:32:00,33.7,25.0,30.34,NNE,25,11.5,11.5,70,0.00,CLR,SCT,0.00,WeatherDisplay:10.37,2013-11-12 21:32:00,
2013-11-12 16:33:00,33.7,25.0,30.34,NE,52,9.2,9.2,70,0.00,CLR,SCT,0.00,WeatherDisplay:10.37,2013-11-12 21:33:00,
2013-11-12 16:35:00,33.7,25.0,30.34,NNE,27,10.4,10.4,70,0.00,CLR,SCT,0.00,WeatherDisplay:10.37,2013-11-12 21:35:00,
2013-11-12 16:38:00,33.5,24.8,30.34,NNE,32,11.5,11.5,70,0.00,CLR,SCT,0.00,WeatherDisplay:10.37,2013-11-12 21:38:00,
2013-11-12 16:39:00,33.5,24.8,30.34,NNE,32,10.4,10.4,70,0.00,CLR,SCT,0.00,WeatherDisplay:10.37,2013-11-12 21:39:00,
2013-11-12 16:40:00,33.5,24.8,30.34,NNE,27,10.4,10.4,70,0.00,CLR,SCT,0.00,WeatherDisplay:10.37,2013-11-12 21:40:00,
2013-11-12 16:41:00,33.5,24.8,30.34,NNE,28,11.5,11.5,70,0.00,CLR,SCT,0.00,WeatherDisplay:10.37,2013-11-12 21:41:00,
2013-11-12 16:44:00,33.4,24.3,30.35,North,9,11.5,11.5,69,0.00,CLR,SCT,0.00,WeatherDisplay:10.37,2013-11-12 21:44:00,
2013-11-12 16:45:00,33.4,24.3,30.35,NNE,27,12.0,12.0,69,0.00,CLR,SCT,0.00,WeatherDisplay:10.37,2013-11-12 21:45:00,
2013-11-12 16:46:00,33.4,24.3,30.35,NNE,23,15.0,15.0,69,0.00,CLR,SCT,0.00,WeatherDisplay:10.37,2013-11-12 21:46:00,
2013-11-12 16:50:00,33.2,24.1,30.36,North,11,4.6,4.6,69,0.00,CLR,SCT,0.00,WeatherDisplay:10.37,2013-11-12 21:50:00,
2013-11-12 16:51:00,33.2,24.1,30.36,North,10,5.8,5.8,69,0.00,CLR,SCT,0.00,WeatherDisplay:10.37,2013-11-12 21:51:00,
2013-11-12 16:53:00,33.2,24.1,30.36,NE,44,11.5,11.5,69,0.00,CLR,SCT,0.00,WeatherDisplay:10.37,2013-11-12 21:53:00,
2013-11-12 16:54:00,33.2,24.1,30.36,NNE,28,12.7,12.7,69,0.00,CLR,SCT,0.00,WeatherDisplay:10.37,2013-11-12 21:54:00,
2013-11-12 16:55:00,33.2,23.8,30.36,NE,40,11.5,11.5,68,0.00,CLR,SCT,0.00,WeatherDisplay:10.37,2013-11-12 21:55:00,
2013-11-12 16:57:00,33.1,24.0,30.36,ENE,57,15.0,15.0,69,0.00,CLR,SCT,0.00,WeatherDisplay:10.37,2013-11-12 21:57:00,
2013-11-12 16:59:00,33.1,23.7,30.36,NE,37,13.8,13.8,68,0.00,CLR,SCT,0.00,WeatherDisplay:10.37,2013-11-12 21:59:00,
2013-11-12 17:02:00,32.9,23.5,30.36,NNE,17,12.7,12.7,68,0.00,CLR,SCT,0.00,WeatherDisplay:10.37,2013-11-12 22:02:00,
2013-11-12 17:04:00,32.9,23.5,30.37,ENE,57,12.7,12.7,68,0.00,CLR,SCT,0.00,WeatherDisplay:10.37,2013-11-12 22:04:00,
2013-11-12 17:05:00,32.9,23.5,30.37,NNE,22,10.4,10.4,68,0.00,CLR,SCT,0.00,WeatherDisplay:10.37,2013-11-12 22:05:00,
2013-11-12 17:06:00,32.8,23.4,30.37,NE,42,10.4,10.4,68,0.00,CLR,SCT,0.00,WeatherDisplay:10.37,2013-11-12 22:06:00,
2013-11-12 17:08:00,32.8,23.4,30.37,NE,43,11.5,11.5,68,0.00,CLR,SCT,0.00,WeatherDisplay:10.37,2013-11-12 22:08:00,
2013-11-12 17:09:00,32.7,23.3,30.37,NNE,22,10.4,10.4,68,0.00,CLR,SCT,0.00,WeatherDisplay:10.37,2013-11-12 22:09:00,
2013-11-12 17:10:00,32.7,22.9,30.37,NNE,14,12.7,12.7,67,0.00,CLR,SCT,0.00,WeatherDisplay:10.37,2013-11-12 22:10:00,
2013-11-12 17:11:00,32.7,22.9,30.37,NNE,24,11.5,11.5,67,0.00,CLR,SCT,0.00,WeatherDisplay:10.37,2013-11-12 22:11:00,
2013-11-12 17:12:00,32.7,22.9,30.37,North,5,11.5,11.5,67,0.00,CLR,SCT,0.00,WeatherDisplay:10.37,2013-11-12 22:12:00,
2013-11-12 17:13:00,32.5,22.8,30.37,North,5,10.4,10.4,67,0.00,CLR,SCT,0.00,WeatherDisplay:10.37,2013-11-12 22:13:00,
2013-11-12 17:14:00,32.5,22.8,30.37,North,9,8.1,8.1,67,0.00,CLR,SCT,0.00,WeatherDisplay:10.37,2013-11-12 22:14:00,
2013-11-12 17:15:00,32.5,22.8,30.37,NNE,24,10.4,10.4,67,0.00,CLR,SCT,0.00,WeatherDisplay:10.37,2013-11-12 22:15:00,
2013-11-12 17:17:00,32.4,22.7,30.37,NNE,32,11.5,11.5,67,0.00,CLR,SCT,0.00,WeatherDisplay:10.37,2013-11-12 22:17:00,
2013-11-12 17:21:00,32.4,22.7,30.38,NNE,24,12.7,12.7,67,0.00,CLR,SCT,0.00,WeatherDisplay:10.37,2013-11-12 22:21:00,
2013-11-12 17:22:00,32.4,22.7,30.38,NNE,32,12.7,12.7,67,0.00,CLR,SCT,0.00,WeatherDisplay:10.37,2013-11-12 22:22:00,
2013-11-12 17:23:00,32.4,22.7,30.38,NE,46,10.4,10.4,67,0.00,CLR,SCT,0.00,WeatherDisplay:10.37,2013-11-12 22:23:00,
2013-11-12 17:26:00,32.2,22.5,30.38,NNE,25,9.2,9.2,67,0.00,CLR,SCT,0.00,WeatherDisplay:10.37,2013-11-12 22:26:00,
2013-11-12 17:27:00,32.2,22.5,30.38,NNE,32,10.4,10.4,67,0.00,CLR,SCT,0.00,WeatherDisplay:10.37,2013-11-12 22:27:00,
2013-11-12 17:29:00,32.2,22.5,30.38,NNE,32,10.4,10.4,67,0.00,CLR,SCT,0.00,WeatherDisplay:10.37,2013-11-12 22:29:00,
2013-11-12 17:30:00,32.2,22.5,30.38,NNE,29,9.2,9.2,67,0.00,CLR,SCT,0.00,WeatherDisplay:10.37,2013-11-12 22:30:00,
2013-11-12 17:31:00,32.2,22.5,30.38,NNE,28,9.2,9.2,67,0.00,CLR,SCT,0.00,WeatherDisplay:10.37,2013-11-12 22:31:00,
2013-11-12 17:34:00,32.2,22.5,30.38,NE,38,8.0,8.0,67,0.00,CLR,SCT,0.00,WeatherDisplay:10.37,2013-11-12 22:34:00,
2013-11-12 17:35:00,32.1,22.4,30.38,NNE,28,11.5,11.5,67,0.00,CLR,SCT,0.00,WeatherDisplay:10.37,2013-11-12 22:35:00,
2013-11-12 17:36:00,32.1,22.4,30.39,NNE,28,11.5,11.5,67,0.00,CLR,SCT,0.00,WeatherDisplay:10.37,2013-11-12 22:36:00,
2013-11-12 17:38:00,32.1,22.4,30.39,NNE,24,13.8,13.8,67,0.00,CLR,SCT,0.00,WeatherDisplay:10.37,2013-11-12 22:38:00,
2013-11-12 17:40:00,31.9,21.8,30.39,NNE,24,11.5,11.5,66,0.00,CLR,SCT,0.00,WeatherDisplay:10.37,2013-11-12 22:40:00,
2013-11-12 17:41:00,31.9,21.8,30.39,NNE,29,10.4,10.4,66,0.00,CLR,SCT,0.00,WeatherDisplay:10.37,2013-11-12 22:41:00,
2013-11-12 17:44:00,31.9,21.8,30.39,NNE,20,6.0,6.0,66,0.00,CLR,SCT,0.00,WeatherDisplay:10.37,2013-11-12 22:44:00,
2013-11-12 17:45:00,31.8,21.7,30.39,NNE,32,9.2,9.2,66,0.00,CLR,SCT,0.00,WeatherDisplay:10.37,2013-11-12 22:45:00,
2013-11-12 17:47:00,31.8,21.7,30.39,NNE,17,10.4,10.4,66,0.00,CLR,SCT,0.00,WeatherDisplay:10.37,2013-11-12 22:47:00,
2013-11-12 17:49:00,31.6,21.5,30.39,North,5,9.2,9.2,66,0.00,CLR,SCT,0.00,WeatherDisplay:10.37,2013-11-12 22:49:00,
2013-11-12 17:54:00,31.5,21.4,30.39,NNE,30,11.5,11.5,66,0.00,CLR,SCT,0.00,WeatherDisplay:10.37,2013-11-12 22:54:00,
2013-11-12 17:55:00,31.5,21.4,30.39,NNE,13,13.8,13.8,66,0.00,CLR,SCT,0.00,WeatherDisplay:10.37,2013-11-12 22:55:00,
2013-11-12 18:00:00,31.5,21.4,30.39,NNE,30,6.9,6.9,66,0.00,CLR,SCT,0.00,WeatherDisplay:10.37,2013-11-12 23:00:00,
2013-11-12 18:01:00,31.5,21.4,30.39,NNE,30,6.9,6.9,66,0.00,CLR,SCT,0.00,WeatherDisplay:10.37,2013-11-12 23:01:00,
2013-11-12 18:02:00,31.5,21.4,30.40,NNE,32,5.8,5.8,66,0.00,CLR,SCT,0.00,WeatherDisplay:10.37,2013-11-12 23:02:00,
2013-11-12 18:03:00,31.5,21.4,30.39,NNE,32,4.6,4.6,66,0.00,CLR,SCT,0.00,WeatherDisplay:10.37,2013-11-12 23:03:00,
2013-11-12 18:04:00,31.5,21.4,30.39,NNE,32,3.5,3.5,66,0.00,CLR,SCT,0.00,WeatherDisplay:10.37,2013-11-12 23:04:00,
2013-11-12 18:07:00,31.5,21.4,30.40,North,5,9.2,9.2,66,0.00,CLR,SCT,0.00,WeatherDisplay:10.37,2013-11-12 23:07:00,
2013-11-12 18:09:00,31.3,21.3,30.40,NNE,19,6.9,6.9,66,0.00,CLR,SCT,0.00,WeatherDisplay:10.37,2013-11-12 23:09:00,
2013-11-12 18:10:00,31.3,21.3,30.40,NNE,19,8.1,8.1,66,0.00,CLR,SCT,0.00,WeatherDisplay:10.37,2013-11-12 23:10:00,
2013-11-12 18:11:00,31.3,21.3,30.40,NNE,26,6.9,6.9,66,0.00,CLR,SCT,0.00,WeatherDisplay:10.37,2013-11-12 23:11:00,
2013-11-12 18:14:00,31.3,20.9,30.41,NNE,23,8.1,8.1,65,0.00,CLR,SCT,0.00,WeatherDisplay:10.37,2013-11-12 23:14:00,
2013-11-12 18:15:00,31.3,20.9,30.41,North,9,6.9,6.9,65,0.00,CLR,SCT,0.00,WeatherDisplay:10.37,2013-11-12 23:15:00,
2013-11-12 18:16:00,31.3,20.9,30.41,NNE,15,10.4,10.4,65,0.00,CLR,SCT,0.00,WeatherDisplay:10.37,2013-11-12 23:16:00,
2013-11-12 18:17:00,31.2,20.8,30.41,NNE,13,10.0,10.0,65,0.00,CLR,SCT,0.00,WeatherDisplay:10.37,2013-11-12 23:17:00,
2013-11-12 18:19:00,31.2,20.8,30.41,NNE,32,10.4,10.4,65,0.00,CLR,SCT,0.00,WeatherDisplay:10.37,2013-11-12 23:19:00,
2013-11-12 18:21:00,31.2,20.8,30.41,NNE,25,9.2,9.2,65,0.00,CLR,SCT,0.00,WeatherDisplay:10.37,2013-11-12 23:21:00,
2013-11-12 18:22:00,31.2,20.8,30.41,NNE,15,11.5,11.5,65,0.00,CLR,SCT,0.00,WeatherDisplay:10.37,2013-11-12 23:22:00,
2013-11-12 18:24:00,31.2,20.8,30.41,NNE,12,6.9,6.9,65,0.00,CLR,SCT,0.00,WeatherDisplay:10.37,2013-11-12 23:24:00,
2013-11-12 18:26:00,31.0,20.6,30.41,NNE,12,3.5,3.5,65,0.00,CLR,SCT,0.00,WeatherDisplay:10.37,2013-11-12 23:26:00,
2013-11-12 18:28:00,31.0,20.6,30.41,NNE,12,1.2,1.2,65,0.00,CLR,SCT,0.00,WeatherDisplay:10.37,2013-11-12 23:28:00,
2013-11-12 18:30:00,31.0,20.6,30.41,North,360,6.9,6.9,65,0.00,CLR,SCT,0.00,WeatherDisplay:10.37,2013-11-12 23:30:00,
2013-11-12 18:31:00,31.0,20.2,30.42,North,360,6.9,6.9,64,0.00,CLR,SCT,0.00,WeatherDisplay:10.37,2013-11-12 23:31:00,
2013-11-12 18:33:00,30.9,20.1,30.42,NNW,348,15.0,15.0,64,0.00,CLR,SCT,0.00,WeatherDisplay:10.37,2013-11-12 23:33:00,
2013-11-12 18:36:00,30.9,20.1,30.42,North,355,13.8,13.8,64,0.00,CLR,SCT,0.00,WeatherDisplay:10.37,2013-11-12 23:36:00,
2013-11-12 18:37:00,30.7,20.0,30.42,NNE,20,13.8,13.8,64,0.00,CLR,SCT,0.00,WeatherDisplay:10.37,2013-11-12 23:37:00,
2013-11-12 18:39:00,30.7,19.6,30.42,North,355,15.0,15.0,63,0.00,CLR,SCT,0.00,WeatherDisplay:10.37,2013-11-12 23:39:00,
2013-11-12 18:40:00,30.6,19.5,30.42,NNE,16,16.1,16.1,63,0.00,CLR,SCT,0.00,WeatherDisplay:10.37,2013-11-12 23:40:00,
2013-11-12 18:42:00,30.6,19.5,30.42,NNW,348,13.8,13.8,63,0.00,CLR,SCT,0.00,WeatherDisplay:10.37,2013-11-12 23:42:00,
2013-11-12 18:43:00,30.4,19.3,30.42,North,9,15.0,15.0,63,0.00,CLR,SCT,0.00,WeatherDisplay:10.37,2013-11-12 23:43:00,
2013-11-12 18:44:00,30.4,19.3,30.42,NNE,20,17.3,17.3,63,0.00,CLR,SCT,0.00,WeatherDisplay:10.37,2013-11-12 23:44:00,
2013-11-12 18:47:00,30.3,19.2,30.42,North,11,15.0,15.0,63,0.00,CLR,SCT,0.00,WeatherDisplay:10.37,2013-11-12 23:47:00,
2013-11-12 18:48:00,30.3,19.2,30.42,NNE,16,15.0,15.0,63,0.00,CLR,SCT,0.00,WeatherDisplay:10.37,2013-11-12 23:48:00,
2013-11-12 18:49:00,30.3,19.2,30.42,NNE,28,10.4,10.4,63,0.00,CLR,SCT,0.00,WeatherDisplay:10.37,2013-11-12 23:49:00,
2013-11-12 18:51:00,30.1,19.0,30.42,North,10,17.3,17.3,63,0.00,CLR,SCT,0.00,WeatherDisplay:10.37,2013-11-12 23:51:00,
2013-11-12 18:53:00,30.1,19.0,30.42,NNE,32,11.5,11.5,63,0.00,CLR,SCT,0.00,WeatherDisplay:10.37,2013-11-12 23:53:00,
2013-11-12 18:54:00,30.0,18.9,30.42,NE,36,10.4,10.4,63,0.00,CLR,SCT,0.00,WeatherDisplay:10.37,2013-11-12 23:54:00,
2013-11-12 18:55:00,30.0,18.2,30.43,NNW,348,11.5,11.5,61,0.00,CLR,SCT,0.00,WeatherDisplay:10.37,2013-11-12 23:55:00,
2013-11-12 18:58:00,29.8,18.4,30.43,NNE,19,15.0,15.0,62,0.00,CLR,SCT,0.00,WeatherDisplay:10.37,2013-11-12 23:58:00,
2013-11-12 18:59:00,29.8,18.4,30.43,NE,50,10.4,10.4,62,0.00,CLR,SCT,0.00,WeatherDisplay:10.37,2013-11-12 23:59:00,
2013-11-12 19:01:00,29.8,18.4,30.43,NNE,22,11.5,11.5,62,0.00,CLR,SCT,0.00,WeatherDisplay:10.37,2013-11-13 00:01:00,
2013-11-12 19:03:00,29.7,18.3,30.43,North,5,13.8,13.8,62,0.00,CLR,SCT,0.00,WeatherDisplay:10.37,2013-11-13 00:03:00,
2013-11-12 19:04:00,29.7,18.3,30.43,North,355,11.5,11.5,62,0.00,CLR,SCT,0.00,WeatherDisplay:10.37,2013-11-13 00:04:00,
2013-11-12 19:07:00,29.7,18.3,30.43,North,360,11.5,11.5,62,0.00,CLR,SCT,0.00,WeatherDisplay:10.37,2013-11-13 00:07:00,
2013-11-12 19:09:00,29.7,18.3,30.43,NNE,17,11.5,11.5,62,0.00,CLR,SCT,0.00,WeatherDisplay:10.37,2013-11-13 00:09:00,
2013-11-12 19:10:00,29.5,18.1,30.43,NNE,24,10.4,10.4,62,0.00,CLR,SCT,0.00,WeatherDisplay:10.37,2013-11-13 00:10:00,
2013-11-12 19:12:00,29.5,18.1,30.43,North,355,11.5,11.5,62,0.00,CLR,SCT,0.00,WeatherDisplay:10.37,2013-11-13 00:12:00,
2013-11-12 19:13:00,29.5,18.1,30.43,NNE,13,9.2,9.2,62,0.00,CLR,SCT,0.00,WeatherDisplay:10.37,2013-11-13 00:13:00,
2013-11-12 19:14:00,29.5,18.1,30.43,NNE,19,13.0,13.0,62,0.00,CLR,SCT,0.00,WeatherDisplay:10.37,2013-11-13 00:14:00,
2013-11-12 19:16:00,29.5,18.1,30.43,North,355,13.8,13.8,62,0.00,CLR,SCT,0.00,WeatherDisplay:10.37,2013-11-13 00:16:00,
2013-11-12 19:17:00,29.5,18.1,30.43,NNE,25,13.0,13.0,62,0.00,CLR,SCT,0.00,WeatherDisplay:10.37,2013-11-13 00:17:00,
2013-11-12 19:18:00,29.5,18.1,30.43,NNE,27,12.7,12.7,62,0.00,CLR,SCT,0.00,WeatherDisplay:10.37,2013-11-13 00:18:00,
2013-11-12 19:19:00,29.5,18.1,30.43,NNE,13,16.1,16.1,62,0.00,CLR,SCT,0.00,WeatherDisplay:10.37,2013-11-13 00:19:00,
2013-11-12 19:20:00,29.4,18.0,30.43,North,9,16.1,16.1,62,0.00,CLR,SCT,0.00,WeatherDisplay:10.37,2013-11-13 00:20:00,
2013-11-12 19:21:00,29.4,18.0,30.44,NE,35,16.1,16.1,62,0.00,CLR,SCT,0.00,WeatherDisplay:10.37,2013-11-13 00:21:00,
2013-11-12 19:23:00,29.4,18.0,30.44,NNE,18,15.0,15.0,62,0.00,CLR,SCT,0.00,WeatherDisplay:10.37,2013-11-13 00:23:00,
2013-11-12 19:24:00,29.4,18.0,30.44,NE,34,13.8,13.8,62,0.00,CLR,SCT,0.00,WeatherDisplay:10.37,2013-11-13 00:24:00,
2013-11-12 19:26:00,29.4,18.0,30.44,North,360,13.8,13.8,62,0.00,CLR,SCT,0.00,WeatherDisplay:10.37,2013-11-13 00:26:00,
2013-11-12 19:31:00,29.4,18.0,30.44,NE,40,13.0,13.0,62,0.00,CLR,SCT,0.00,WeatherDisplay:10.37,2013-11-13 00:31:00,
2013-11-12 19:33:00,29.4,18.0,30.44,NNE,16,11.5,11.5,62,0.00,CLR,SCT,0.00,WeatherDisplay:10.37,2013-11-13 00:33:00,
2013-11-12 19:34:00,29.4,18.0,30.44,NE,39,9.2,9.2,62,0.00,CLR,SCT,0.00,WeatherDisplay:10.37,2013-11-13 00:34:00,
2013-11-12 19:35:00,29.4,18.0,30.44,NNE,24,8.0,8.0,62,0.00,CLR,SCT,0.00,WeatherDisplay:10.37,2013-11-13 00:35:00,
2013-11-12 19:36:00,29.4,18.0,30.44,NNE,30,10.4,10.4,62,0.00,CLR,SCT,0.00,WeatherDisplay:10.37,2013-11-13 00:36:00,
2013-11-12 19:38:00,29.4,18.0,30.44,NNE,13,10.4,10.4,62,0.00,CLR,SCT,0.00,WeatherDisplay:10.37,2013-11-13 00:38:00,
2013-11-12 19:41:00,29.3,17.9,30.44,NNE,27,11.5,11.5,62,0.00,CLR,SCT,0.00,WeatherDisplay:10.37,2013-11-13 00:41:00,
2013-11-12 19:43:00,29.3,17.9,30.44,ENE,65,10.4,10.4,62,0.00,CLR,SCT,0.00,WeatherDisplay:10.37,2013-11-13 00:43:00,
2013-11-12 19:44:00,29.3,17.9,30.44,ENE,62,6.0,6.0,62,0.00,CLR,SCT,0.00,WeatherDisplay:10.37,2013-11-13 00:44:00,
2013-11-12 19:46:00,29.3,17.9,30.44,NNE,27,18.0,18.0,62,0.00,CLR,SCT,0.00,WeatherDisplay:10.37,2013-11-13 00:46:00,
2013-11-12 19:49:00,29.3,17.5,30.45,NE,44,13.8,13.8,61,0.00,CLR,SCT,0.00,WeatherDisplay:10.37,2013-11-13 00:49:00,
2013-11-12 19:50:00,29.3,17.5,30.45,NNE,27,11.5,11.5,61,0.00,CLR,SCT,0.00,WeatherDisplay:10.37,2013-11-13 00:50:00,
2013-11-12 19:54:00,29.3,17.5,30.45,NE,35,11.5,11.5,61,0.00,CLR,SCT,0.00,WeatherDisplay:10.37,2013-11-13 00:54:00,
2013-11-12 19:55:00,29.3,17.5,30.45,NE,46,10.4,10.4,61,0.00,CLR,SCT,0.00,WeatherDisplay:10.37,2013-11-13 00:55:00,
2013-11-12 19:57:00,29.3,17.5,30.45,NE,56,9.2,9.2,61,0.00,CLR,SCT,0.00,WeatherDisplay:10.37,2013-11-13 00:57:00,
2013-11-12 19:58:00,29.3,17.5,30.45,ENE,57,11.5,11.5,61,0.00,CLR,SCT,0.00,WeatherDisplay:10.37,2013-11-13 00:58:00,
2013-11-12 19:59:00,29.3,17.5,30.45,ENE,61,9.2,9.2,61,0.00,CLR,SCT,0.00,WeatherDisplay:10.37,2013-11-13 00:59:00,
2013-11-12 20:00:00,29.3,17.9,30.45,ENE,59,7.0,7.0,62,0.00,CLR,SCT,0.00,WeatherDisplay:10.37,2013-11-13 01:00:00,
2013-11-12 20:04:00,29.3,17.9,30.45,NE,34,5.8,5.8,62,0.00,CLR,SCT,0.00,WeatherDisplay:10.37,2013-11-13 01:04:00,
2013-11-12 20:05:00,29.3,17.9,30.45,NE,44,10.4,10.4,62,0.00,CLR,SCT,0.00,WeatherDisplay:10.37,2013-11-13 01:05:00,
2013-11-12 20:06:00,29.3,17.9,30.45,NE,38,10.4,10.4,62,0.00,CLR,SCT,0.00,WeatherDisplay:10.37,2013-11-13 01:06:00,
2013-11-12 20:09:00,29.1,17.7,30.45,NE,43,5.8,5.8,62,0.00,CLR,SCT,0.00,WeatherDisplay:10.37,2013-11-13 01:09:00,
2013-11-12 20:11:00,29.1,17.7,30.45,ENE,57,11.5,11.5,62,0.00,CLR,SCT,0.00,WeatherDisplay:10.37,2013-11-13 01:11:00,
2013-11-12 20:14:00,29.0,17.6,30.45,NE,46,6.9,6.9,62,0.00,CLR,SCT,0.00,WeatherDisplay:10.37,2013-11-13 01:14:00,
2013-11-12 20:16:00,29.0,17.2,30.45,NE,46,6.9,6.9,61,0.00,CLR,SCT,0.00,WeatherDisplay:10.37,2013-11-13 01:16:00,
2013-11-12 20:17:00,29.0,17.2,30.45,ENE,72,5.0,5.0,61,0.00,CLR,SCT,0.00,WeatherDisplay:10.37,2013-11-13 01:17:00,
2013-11-12 20:18:00,28.8,17.0,30.46,ENE,71,5.0,5.0,61,0.00,CLR,SCT,0.00,WeatherDisplay:10.37,2013-11-13 01:18:00,
2013-11-12 20:20:00,28.8,17.0,30.46,ENE,68,5.8,5.8,61,0.00,CLR,SCT,0.00,WeatherDisplay:10.37,2013-11-13 01:20:00,
2013-11-12 20:24:00,28.7,17.3,30.46,NE,41,4.6,4.6,62,0.00,CLR,SCT,0.00,WeatherDisplay:10.37,2013-11-13 01:24:00,
2013-11-12 20:25:00,28.7,18.8,30.46,ENE,63,8.1,8.1,66,0.00,CLR,SCT,0.00,WeatherDisplay:10.37,2013-11-13 01:25:00,
2013-11-12 20:26:00,28.7,18.8,30.47,NE,34,9.2,9.2,66,0.00,CLR,SCT,0.00,WeatherDisplay:10.37,2013-11-13 01:26:00,
2013-11-12 20:28:00,28.7,17.3,30.47,NE,34,4.0,4.0,62,0.00,CLR,SCT,0.00,WeatherDisplay:10.37,2013-11-13 01:28:00,
2013-11-12 20:30:00,28.7,17.3,30.47,NE,34,3.5,3.5,62,0.00,CLR,SCT,0.00,WeatherDisplay:10.37,2013-11-13 01:30:00,
2013-11-12 20:31:00,28.7,17.3,30.47,NE,34,2.3,2.3,62,0.00,CLR,SCT,0.00,WeatherDisplay:10.37,2013-11-13 01:31:00,
2013-11-12 20:32:00,28.7,17.3,30.47,NE,34,3.5,3.5,62,0.00,CLR,SCT,0.00,WeatherDisplay:10.37,2013-11-13 01:32:00,
2013-11-12 20:33:00,28.7,17.3,30.47,NE,34,3.5,3.5,62,0.00,CLR,SCT,0.00,WeatherDisplay:10.37,2013-11-13 01:33:00,
2013-11-12 20:37:00,28.7,17.3,30.47,NE,41,3.5,3.5,62,0.00,CLR,SCT,0.00,WeatherDisplay:10.37,2013-11-13 01:37:00,
2013-11-12 20:40:00,28.5,17.1,30.47,NE,41,2.3,2.3,62,0.00,CLR,SCT,0.00,WeatherDisplay:10.37,2013-11-13 01:40:00,
2013-11-12 20:42:00,28.5,17.1,30.47,NE,41,0.0,0.0,62,0.00,CLR,SCT,0.00,WeatherDisplay:10.37,2013-11-13 01:42:00,
2013-11-12 20:43:00,28.5,17.1,30.47,NE,41,0.0,0.0,62,0.00,CLR,SCT,0.00,WeatherDisplay:10.37,2013-11-13 01:43:00,
2013-11-12 20:45:00,28.5,17.1,30.47,NE,41,0.0,0.0,62,0.00,CLR,SCT,0.00,WeatherDisplay:10.37,2013-11-13 01:45:00,
2013-11-12 20:47:00,28.5,17.1,30.47,NE,41,0.0,0.0,62,0.00,CLR,SCT,0.00,WeatherDisplay:10.37,2013-11-13 01:47:00,
2013-11-12 20:49:00,28.5,17.1,30.47,NE,42,1.2,0.0,62,0.00,CLR,SCT,0.00,WeatherDisplay:10.37,2013-11-13 01:49:00,
2013-11-12 20:50:00,28.5,17.1,30.48,NE,42,0.0,0.0,62,0.00,CLR,SCT,0.00,WeatherDisplay:10.37,2013-11-13 01:50:00,
2013-11-12 20:52:00,28.5,17.1,30.48,NE,42,0.0,0.0,62,0.00,CLR,SCT,0.00,WeatherDisplay:10.37,2013-11-13 01:52:00,
2013-11-12 20:53:00,28.5,17.1,30.48,NE,42,0.0,0.0,62,0.00,CLR,SCT,0.00,WeatherDisplay:10.37,2013-11-13 01:53:00,
2013-11-12 20:54:00,28.5,17.1,30.48,NE,42,0.0,0.0,62,0.00,CLR,SCT,0.00,WeatherDisplay:10.37,2013-11-13 01:54:00,
2013-11-12 20:56:00,28.5,17.1,30.48,NE,42,0.0,0.0,62,0.00,CLR,SCT,0.00,WeatherDisplay:10.37,2013-11-13 01:56:00,
2013-11-12 20:57:00,28.5,17.1,30.48,NE,42,0.0,0.0,62,0.00,CLR,SCT,0.00,WeatherDisplay:10.37,2013-11-13 01:57:00,
2013-11-12 20:58:00,28.5,17.1,30.48,NE,42,0.0,0.0,62,0.00,CLR,SCT,0.00,WeatherDisplay:10.37,2013-11-13 01:58:00,
2013-11-12 21:01:00,28.5,17.5,30.48,NE,42,0.0,0.0,63,0.00,CLR,SCT,0.00,WeatherDisplay:10.37,2013-11-13 02:01:00,
2013-11-12 21:02:00,28.5,17.5,30.48,NE,42,0.0,0.0,63,0.00,CLR,SCT,0.00,WeatherDisplay:10.37,2013-11-13 02:02:00,
2013-11-12 21:04:00,28.4,17.4,30.49,NE,42,0.0,0.0,63,0.00,CLR,SCT,0.00,WeatherDisplay:10.37,2013-11-13 02:04:00,
2013-11-12 21:05:00,28.4,17.4,30.49,NE,42,0.0,0.0,63,0.00,CLR,SCT,0.00,WeatherDisplay:10.37,2013-11-13 02:05:00,
2013-11-12 21:06:00,28.4,17.4,30.49,NE,42,0.0,0.0,63,0.00,CLR,SCT,0.00,WeatherDisplay:10.37,2013-11-13 02:06:00,
2013-11-12 21:09:00,28.4,17.4,30.49,NE,42,0.0,0.0,63,0.00,CLR,SCT,0.00,WeatherDisplay:10.37,2013-11-13 02:09:00,
2013-11-12 21:11:00,28.4,17.4,30.49,NE,42,0.0,0.0,63,0.00,CLR,SCT,0.00,WeatherDisplay:10.37,2013-11-13 02:11:00,
2013-11-12 21:12:00,28.4,17.4,30.49,NE,42,0.0,0.0,63,0.00,CLR,SCT,0.00,WeatherDisplay:10.37,2013-11-13 02:12:00,
2013-11-12 21:13:00,28.4,17.4,30.49,NE,42,0.0,0.0,63,0.00,CLR,SCT,0.00,WeatherDisplay:10.37,2013-11-13 02:13:00,
2013-11-12 21:14:00,28.4,17.4,30.49,NE,42,0.0,0.0,63,0.00,CLR,SCT,0.00,WeatherDisplay:10.37,2013-11-13 02:14:00,
2013-11-12 21:15:00,28.2,17.2,30.49,NE,42,0.0,0.0,63,0.00,CLR,SCT,0.00,WeatherDisplay:10.37,2013-11-13 02:15:00,
2013-11-12 21:16:00,28.2,17.2,30.49,NE,42,0.0,0.0,63,0.00,CLR,SCT,0.00,WeatherDisplay:10.37,2013-11-13 02:16:00,
2013-11-12 21:17:00,28.2,17.2,30.49,NE,42,0.0,0.0,63,0.00,CLR,SCT,0.00,WeatherDisplay:10.37,2013-11-13 02:17:00,
2013-11-12 21:22:00,28.1,17.1,30.49,NE,42,0.0,0.0,63,0.00,CLR,SCT,0.00,WeatherDisplay:10.37,2013-11-13 02:22:00,
2013-11-12 21:23:00,28.1,17.1,30.49,NE,42,0.0,0.0,63,0.00,CLR,SCT,0.00,WeatherDisplay:10.37,2013-11-13 02:23:00,
2013-11-12 21:24:00,27.9,16.9,30.49,NE,42,0.0,0.0,63,0.00,CLR,SCT,0.00,WeatherDisplay:10.37,2013-11-13 02:24:00,
2013-11-12 21:25:00,27.9,16.9,30.49,NE,42,0.0,0.0,63,0.00,CLR,SCT,0.00,WeatherDisplay:10.37,2013-11-13 02:25:00,
2013-11-12 21:30:00,27.6,16.6,30.49,NE,42,0.0,0.0,63,0.00,CLR,SCT,0.00,WeatherDisplay:10.37,2013-11-13 02:30:00,
2013-11-12 21:31:00,27.6,16.6,30.49,NE,42,0.0,0.0,63,0.00,CLR,SCT,0.00,WeatherDisplay:10.37,2013-11-13 02:31:00,
2013-11-12 21:33:00,27.5,16.5,30.49,NE,42,0.0,0.0,63,0.00,CLR,SCT,0.00,WeatherDisplay:10.37,2013-11-13 02:33:00,
2013-11-12 21:35:00,27.5,16.5,30.49,NE,42,0.0,0.0,63,0.00,CLR,SCT,0.00,WeatherDisplay:10.37,2013-11-13 02:35:00,
2013-11-12 21:36:00,27.3,16.4,30.49,NE,42,0.0,0.0,63,0.00,CLR,SCT,0.00,WeatherDisplay:10.37,2013-11-13 02:36:00,
2013-11-12 21:38:00,27.3,16.7,30.49,NE,42,0.0,0.0,64,0.00,CLR,SCT,0.00,WeatherDisplay:10.37,2013-11-13 02:38:00,
2013-11-12 21:40:00,27.2,16.6,30.49,NE,42,0.0,0.0,64,0.00,CLR,SCT,0.00,WeatherDisplay:10.37,2013-11-13 02:40:00,
2013-11-12 21:42:00,27.2,16.6,30.49,NE,42,0.0,0.0,64,0.00,CLR,SCT,0.00,WeatherDisplay:10.37,2013-11-13 02:42:00,
2013-11-12 21:43:00,27.0,16.4,30.49,NE,42,0.0,0.0,64,0.00,CLR,SCT,0.00,WeatherDisplay:10.37,2013-11-13 02:43:00,
2013-11-12 21:44:00,27.0,16.4,30.49,NE,42,0.0,0.0,64,0.00,CLR,SCT,0.00,WeatherDisplay:10.37,2013-11-13 02:44:00,
2013-11-12 21:46:00,26.9,16.3,30.49,NE,42,0.0,0.0,64,0.00,CLR,SCT,0.00,WeatherDisplay:10.37,2013-11-13 02:46:00,
2013-11-12 21:47:00,26.9,16.3,30.49,NE,42,0.0,0.0,64,0.00,CLR,SCT,0.00,WeatherDisplay:10.37,2013-11-13 02:47:00,
2013-11-12 21:49:00,26.7,16.1,30.49,NE,42,0.0,0.0,64,0.00,CLR,SCT,0.00,WeatherDisplay:10.37,2013-11-13 02:49:00,
2013-11-12 21:50:00,26.7,16.5,30.49,NE,42,0.0,0.0,65,0.00,CLR,SCT,0.00,WeatherDisplay:10.37,2013-11-13 02:50:00,
2013-11-12 21:51:00,26.7,16.5,30.49,NE,42,0.0,0.0,65,0.00,CLR,SCT,0.00,WeatherDisplay:10.37,2013-11-13 02:51:00,
2013-11-12 21:52:00,26.6,16.4,30.49,NE,42,0.0,0.0,65,0.00,CLR,SCT,0.00,WeatherDisplay:10.37,2013-11-13 02:52:00,
2013-11-12 21:53:00,26.6,16.4,30.49,NE,42,0.0,0.0,65,0.00,CLR,SCT,0.00,WeatherDisplay:10.37,2013-11-13 02:53:00,
2013-11-12 21:56:00,26.4,16.2,30.49,NE,42,0.0,0.0,65,0.00,CLR,SCT,0.00,WeatherDisplay:10.37,2013-11-13 02:56:00,
2013-11-12 21:57:00,26.4,16.2,30.49,NE,42,0.0,0.0,65,0.00,CLR,SCT,0.00,WeatherDisplay:10.37,2013-11-13 02:57:00,
2013-11-12 21:58:00,26.3,16.1,30.49,NE,42,0.0,0.0,65,0.00,CLR,SCT,0.00,WeatherDisplay:10.37,2013-11-13 02:58:00,
2013-11-12 21:59:00,26.3,16.1,30.49,NE,42,0.0,0.0,65,0.00,CLR,SCT,0.00,WeatherDisplay:10.37,2013-11-13 02:59:00,
2013-11-12 22:03:00,26.1,15.9,30.50,NE,42,0.0,0.0,65,0.00,CLR,SCT,0.00,WeatherDisplay:10.37,2013-11-13 03:03:00,
2013-11-12 22:04:00,26.1,15.9,30.50,NE,42,0.0,0.0,65,0.00,CLR,SCT,0.00,WeatherDisplay:10.37,2013-11-13 03:04:00,
2013-11-12 22:06:00,26.0,15.8,30.50,NE,42,0.0,0.0,65,0.00,CLR,SCT,0.00,WeatherDisplay:10.37,2013-11-13 03:06:00,
2013-11-12 22:07:00,26.0,15.8,30.50,NE,42,0.0,0.0,65,0.00,CLR,SCT,0.00,WeatherDisplay:10.37,2013-11-13 03:07:00,
2013-11-12 22:08:00,25.8,15.6,30.50,NE,42,0.0,0.0,65,0.00,CLR,SCT,0.00,WeatherDisplay:10.37,2013-11-13 03:08:00,
2013-11-12 22:09:00,25.8,15.6,30.50,NE,42,0.0,0.0,65,0.00,CLR,SCT,0.00,WeatherDisplay:10.37,2013-11-13 03:09:00,
2013-11-12 22:13:00,25.7,15.6,30.50,NE,42,0.0,0.0,65,0.00,CLR,SCT,0.00,WeatherDisplay:10.37,2013-11-13 03:13:00,
2013-11-12 22:14:00,25.6,15.5,30.50,NE,42,0.0,0.0,65,0.00,CLR,SCT,0.00,WeatherDisplay:10.37,2013-11-13 03:14:00,
2013-11-12 22:15:00,25.6,15.5,30.50,NE,42,0.0,0.0,65,0.00,CLR,SCT,0.00,WeatherDisplay:10.37,2013-11-13 03:15:00,
2013-11-12 22:18:00,25.4,15.3,30.50,NE,42,0.0,0.0,65,0.00,CLR,SCT,0.00,WeatherDisplay:10.37,2013-11-13 03:18:00,
2013-11-12 22:19:00,25.4,15.3,30.50,NE,42,0.0,0.0,65,0.00,CLR,SCT,0.00,WeatherDisplay:10.37,2013-11-13 03:19:00,
2013-11-12 22:20:00,25.3,15.2,30.50,NE,42,0.0,0.0,65,0.00,CLR,SCT,0.00,WeatherDisplay:10.37,2013-11-13 03:20:00,
2013-11-12 22:24:00,25.1,15.3,30.50,NE,42,0.0,0.0,66,0.00,CLR,SCT,0.00,WeatherDisplay:10.37,2013-11-13 03:24:00,
2013-11-12 22:25:00,25.1,15.3,30.50,NE,42,0.0,0.0,66,0.00,CLR,SCT,0.00,WeatherDisplay:10.37,2013-11-13 03:25:00,
2013-11-12 22:26:00,25.1,15.3,30.50,NE,42,0.0,0.0,66,0.00,CLR,SCT,0.00,WeatherDisplay:10.37,2013-11-13 03:26:00,
2013-11-12 22:29:00,24.8,15.0,30.50,NE,42,0.0,0.0,66,0.00,CLR,SCT,0.00,WeatherDisplay:10.37,2013-11-13 03:29:00,
2013-11-12 22:30:00,24.8,15.0,30.50,NE,42,0.0,0.0,66,0.00,CLR,SCT,0.00,WeatherDisplay:10.37,2013-11-13 03:30:00,
2013-11-12 22:33:00,24.7,14.9,30.50,NE,42,0.0,0.0,66,0.00,CLR,SCT,0.00,WeatherDisplay:10.37,2013-11-13 03:33:00,
2013-11-12 22:34:00,24.5,14.8,30.50,NE,42,0.0,0.0,66,0.00,CLR,SCT,0.00,WeatherDisplay:10.37,2013-11-13 03:34:00,
2013-11-12 22:35:00,24.5,14.8,30.50,NE,42,0.0,0.0,66,0.00,CLR,SCT,0.00,WeatherDisplay:10.37,2013-11-13 03:35:00,
2013-11-12 22:37:00,24.4,14.7,30.50,NE,42,0.0,0.0,66,0.00,CLR,SCT,0.00,WeatherDisplay:10.37,2013-11-13 03:37:00,
2013-11-12 22:38:00,24.2,14.5,30.50,NE,42,0.0,0.0,66,0.00,CLR,SCT,0.00,WeatherDisplay:10.37,2013-11-13 03:38:00,
2013-11-12 22:39:00,24.2,14.5,30.50,NE,42,0.0,0.0,66,0.00,CLR,SCT,0.00,WeatherDisplay:10.37,2013-11-13 03:39:00,
2013-11-12 22:42:00,24.1,14.4,30.50,NE,42,0.0,0.0,66,0.00,CLR,SCT,0.00,WeatherDisplay:10.37,2013-11-13 03:42:00,
2013-11-12 22:43:00,23.9,14.2,30.50,NE,42,0.0,0.0,66,0.00,CLR,SCT,0.00,WeatherDisplay:10.37,2013-11-13 03:43:00,
2013-11-12 22:44:00,23.9,14.2,30.50,NE,42,0.0,0.0,66,0.00,CLR,SCT,0.00,WeatherDisplay:10.37,2013-11-13 03:44:00,
2013-11-12 22:47:00,23.8,14.1,30.50,NE,42,0.0,0.0,66,0.00,CLR,SCT,0.00,WeatherDisplay:10.37,2013-11-13 03:47:00,
2013-11-12 22:48:00,23.8,14.4,30.50,NE,42,0.0,0.0,67,0.00,CLR,SCT,0.00,WeatherDisplay:10.37,2013-11-13 03:48:00,
2013-11-12 22:53:00,23.6,14.2,30.50,NE,42,0.0,0.0,67,0.00,CLR,SCT,0.00,WeatherDisplay:10.37,2013-11-13 03:53:00,
2013-11-12 22:54:00,23.6,14.2,30.50,NE,42,0.0,0.0,67,0.00,CLR,SCT,0.00,WeatherDisplay:10.37,2013-11-13 03:54:00,
2013-11-12 22:56:00,23.5,14.1,30.50,NE,42,0.0,0.0,67,0.00,CLR,SCT,0.00,WeatherDisplay:10.37,2013-11-13 03:56:00,
2013-11-12 22:57:00,23.5,14.1,30.50,NE,42,0.0,0.0,67,0.00,CLR,SCT,0.00,WeatherDisplay:10.37,2013-11-13 03:57:00,
2013-11-12 22:58:00,23.5,14.1,30.50,NE,42,0.0,0.0,67,0.00,CLR,SCT,0.00,WeatherDisplay:10.37,2013-11-13 03:58:00,
2013-11-12 22:59:00,23.5,14.1,30.49,NE,42,0.0,0.0,67,0.00,CLR,SCT,0.00,WeatherDisplay:10.37,2013-11-13 03:59:00,
2013-11-12 23:04:00,23.3,14.0,30.50,NE,42,0.0,0.0,67,0.00,CLR,SCT,0.00,WeatherDisplay:10.37,2013-11-13 04:04:00,
2013-11-12 23:05:00,23.3,14.0,30.50,NE,42,0.0,0.0,67,0.00,CLR,SCT,0.00,WeatherDisplay:10.37,2013-11-13 04:05:00,
2013-11-12 23:06:00,23.3,14.0,30.50,NE,42,0.0,0.0,67,0.00,CLR,SCT,0.00,WeatherDisplay:10.37,2013-11-13 04:06:00,
2013-11-12 23:07:00,23.3,14.0,30.50,NE,42,0.0,0.0,67,0.00,CLR,SCT,0.00,WeatherDisplay:10.37,2013-11-13 04:07:00,
2013-11-12 23:10:00,23.2,13.9,30.50,NE,42,0.0,0.0,67,0.00,CLR,SCT,0.00,WeatherDisplay:10.37,2013-11-13 04:10:00,
2013-11-12 23:11:00,23.2,13.9,30.50,NE,42,0.0,0.0,67,0.00,CLR,SCT,0.00,WeatherDisplay:10.37,2013-11-13 04:11:00,
2013-11-12 23:12:00,23.2,13.9,30.50,NE,42,0.0,0.0,67,0.00,CLR,SCT,0.00,WeatherDisplay:10.37,2013-11-13 04:12:00,
2013-11-12 23:13:00,23.2,13.9,30.50,NE,42,0.0,0.0,67,0.00,CLR,SCT,0.00,WeatherDisplay:10.37,2013-11-13 04:13:00,
2013-11-12 23:15:00,23.2,13.9,30.50,NE,42,0.0,0.0,67,0.00,CLR,SCT,0.00,WeatherDisplay:10.37,2013-11-13 04:15:00,
2013-11-12 23:16:00,23.2,13.9,30.50,NE,42,0.0,0.0,67,0.00,CLR,SCT,0.00,WeatherDisplay:10.37,2013-11-13 04:16:00,
2013-11-12 23:17:00,23.0,13.7,30.50,NE,42,0.0,0.0,67,0.00,CLR,SCT,0.00,WeatherDisplay:10.37,2013-11-13 04:17:00,
2013-11-12 23:18:00,23.0,13.7,30.50,NE,42,0.0,0.0,67,0.00,CLR,SCT,0.00,WeatherDisplay:10.37,2013-11-13 04:18:00,
2013-11-12 23:20:00,23.0,14.0,30.50,NE,42,0.0,0.0,68,0.00,CLR,SCT,0.00,WeatherDisplay:10.37,2013-11-13 04:20:00,
2013-11-12 23:22:00,23.0,14.0,30.50,NE,42,0.0,0.0,68,0.00,CLR,SCT,0.00,WeatherDisplay:10.37,2013-11-13 04:22:00,
2013-11-12 23:23:00,22.9,13.9,30.50,NE,42,0.0,0.0,68,0.00,CLR,SCT,0.00,WeatherDisplay:10.37,2013-11-13 04:23:00,
2013-11-12 23:24:00,22.9,13.9,30.50,NE,42,0.0,0.0,68,0.00,CLR,SCT,0.00,WeatherDisplay:10.37,2013-11-13 04:24:00,
2013-11-12 23:25:00,22.9,13.9,30.50,NE,42,0.0,0.0,68,0.00,CLR,SCT,0.00,WeatherDisplay:10.37,2013-11-13 04:25:00,
2013-11-12 23:28:00,22.7,13.7,30.50,NE,42,0.0,0.0,68,0.00,CLR,SCT,0.00,WeatherDisplay:10.37,2013-11-13 04:28:00,
2013-11-12 23:29:00,22.5,13.5,30.51,NE,42,0.0,0.0,68,0.00,CLR,SCT,0.00,WeatherDisplay:10.37,2013-11-13 04:29:00,
2013-11-12 23:32:00,22.4,13.4,30.51,NE,42,0.0,0.0,68,0.00,CLR,SCT,0.00,WeatherDisplay:10.37,2013-11-13 04:32:00,
2013-11-12 23:35:00,22.2,13.2,30.51,NE,42,0.0,0.0,68,0.00,CLR,SCT,0.00,WeatherDisplay:10.37,2013-11-13 04:35:00,
2013-11-12 23:37:00,22.1,13.1,30.51,NE,42,0.0,0.0,68,0.00,CLR,SCT,0.00,WeatherDisplay:10.37,2013-11-13 04:37:00,
2013-11-12 23:38:00,22.1,13.1,30.51,NE,42,0.0,0.0,68,0.00,CLR,SCT,0.00,WeatherDisplay:10.37,2013-11-13 04:38:00,
2013-11-12 23:39:00,22.1,13.1,30.51,NE,42,0.0,0.0,68,0.00,CLR,SCT,0.00,WeatherDisplay:10.37,2013-11-13 04:39:00,
2013-11-12 23:40:00,21.9,13.0,30.51,NE,42,0.0,0.0,68,0.00,CLR,SCT,0.00,WeatherDisplay:10.37,2013-11-13 04:40:00,
2013-11-12 23:41:00,21.9,13.0,30.51,NE,42,0.0,0.0,68,0.00,CLR,SCT,0.00,WeatherDisplay:10.37,2013-11-13 04:41:00,
2013-11-12 23:43:00,21.9,13.0,30.51,NE,42,0.0,0.0,68,0.00,CLR,SCT,0.00,WeatherDisplay:10.37,2013-11-13 04:43:00,
2013-11-12 23:44:00,21.8,12.9,30.51,NE,42,0.0,0.0,68,0.00,CLR,SCT,0.00,WeatherDisplay:10.37,2013-11-13 04:44:00,
2013-11-12 23:47:00,21.8,12.9,30.51,NE,42,0.0,0.0,68,0.00,CLR,SCT,0.00,WeatherDisplay:10.37,2013-11-13 04:47:00,
2013-11-12 23:50:00,21.6,12.7,30.51,NE,42,0.0,0.0,68,0.00,CLR,SCT,0.00,WeatherDisplay:10.37,2013-11-13 04:50:00,
2013-11-12 23:52:00,21.6,12.7,30.52,NE,42,0.0,0.0,68,0.00,CLR,SCT,0.00,WeatherDisplay:10.37,2013-11-13 04:52:00,
2013-11-12 23:53:00,21.4,12.5,30.52,NE,42,0.0,0.0,68,0.00,CLR,SCT,0.00,WeatherDisplay:10.37,2013-11-13 04:53:00,
2013-11-12 23:54:00,21.4,12.5,30.52,NE,42,0.0,0.0,68,0.00,CLR,SCT,0.00,WeatherDisplay:10.37,2013-11-13 04:54:00,
2013-11-12 23:55:00,21.4,12.5,30.52,NE,42,0.0,0.0,68,0.00,CLR,SCT,0.00,WeatherDisplay:10.37,2013-11-13 04:55:00,
2013-11-12 23:56:00,21.4,12.5,30.52,NE,42,0.0,0.0,68,0.00,CLR,SCT,0.00,WeatherDisplay:10.37,2013-11-13 04:56:00,
2013-11-12 23:57:00,21.4,12.5,30.52,NE,42,0.0,0.0,68,0.00,CLR,SCT,0.00,WeatherDisplay:10.37,2013-11-13 04:57:00,
2013-11-12 23:59:00,21.4,12.5,30.52,NE,42,0.0,0.0,68,0.00,CLR,SCT,0.00,WeatherDisplay:10.37,2013-11-13 04:59:00,